M I D A S
Marine Information and Data Acquisition System
Tripno 682 of the Zeeleeuw from 2004-04-05 07:58:26 to 2004-04-05 12:58:35
Back to CruiseResearch ActivitiesStationsMapUnderway DataData graphs

EquipmentUnitsComment
TimeDGPSUTC
LatitudeDGPSDM.mWGS84
LongitudeDGPSDM.mWGS84
TemperatureSBE03/SBE38deg celciusITS90
ConductivitySBE21S/mITS90
SalinitySBE21 Practical Salinity Units
ChlorophylAChelsea fluorimeterg/lCalibrated in Aceton
Missing or incorrect values are displayed as -999
Sea surface data collected by the RV Zeeleeuw from 2004-04-05 07:58:26 to 2004-04-05 12:58:35
                                                                                    Next 1000 lines
Time Latitude Longitude Temperature Conductivity Salinity ChlorophylA
2004-04-05 07:58:33 51°13.597 2°56.098 20.790674 0.012767 0.06908 0.769383
2004-04-05 07:58:38 51°13.597 2°56.098 20.179063 0.012767 0.069085 0.836802
2004-04-05 07:58:43 51°13.597 2°56.098 20.018036 0.012767 0.069091 0.836802
2004-04-05 07:58:47 51°13.597 2°56.098 21.300852 0.012767 0.069094 0.769383
2004-04-05 07:58:53 51°13.597 2°56.098 21.300852 0.012767 0.069094 0.769383
2004-04-05 07:58:57 51°13.597 2°56.098 21.019345 0.012767 0.069099 0.870512
2004-04-05 07:59:03 51°13.597 2°56.098 20.641746 0.012767 0.069105 0.803093
2004-04-05 07:59:09 51°13.597 2°56.098 20.840914 0.012767 0.069109 0.803093
2004-04-05 07:59:13 51°13.597 2°56.098 20.778629 0.012767 0.069113 0.870512
2004-04-05 07:59:17 51°13.597 2°56.098 21.028079 0.012767 0.069118 0.803093
2004-04-05 07:59:23 51°13.596 2°56.098 21.028079 0.012767 0.069118 0.803093
2004-04-05 07:59:29 51°13.596 2°56.097 20.496079 0.012767 0.069123 0.904221
2004-04-05 07:59:33 51°13.596 2°56.097 19.275222 0.012767 0.069128 0.870512
2004-04-05 07:59:38 51°13.596 2°56.096 20.683275 0.012767 0.069132 0.803093
2004-04-05 07:59:43 51°13.596 2°56.094 20.467665 0.012663 0.068611 0.803093
2004-04-05 07:59:47 51°13.596 2°56.092 20.301979 0.012767 0.069142 0.769383
2004-04-05 07:59:53 51°13.598 2°56.088 20.301979 0.012767 0.069142 0.769383
2004-04-05 07:59:58 51°13.599 2°56.084 21.186863 0.012767 0.069146 0.803093
2004-04-05 08:00:03 51°13.601 2°56.079 19.684468 0.012767 0.06915 0.803093
2004-04-05 08:00:09 51°13.604 2°56.073 20.032922 0.012767 0.069155 0.803093
2004-04-05 08:00:14 51°13.606 2°56.067 20.487239 0.012767 0.06916 0.735674
2004-04-05 08:00:19 51°13.608 2°56.061 20.822838 0.012663 0.06864 0.769383
2004-04-05 08:00:23 51°13.609 2°56.056 20.822838 0.012663 0.06864 0.769383
2004-04-05 08:00:29 51°13.612 2°56.048 20.285941 0.012767 0.069168 0.803093
2004-04-05 08:00:34 51°13.614 2°56.041 19.626603 0.012663 0.068647 0.803093
2004-04-05 08:00:39 51°13.616 2°56.033 20.148341 0.012663 0.06865 0.803093
2004-04-05 08:00:44 51°13.618 2°56.026 20.381993 0.012767 0.06918 0.769383
2004-04-05 08:00:49 51°13.62 2°56.018 20.359814 0.012767 0.069184 0.904221
2004-04-05 08:00:54 51°13.621 2°56.01 20.359814 0.012767 0.069184 0.904221
2004-04-05 08:00:59 51°13.624 2°56.002 19.642304 0.012767 0.069187 1.005349
2004-04-05 08:01:03 51°13.626 2°55.996 18.755733 0.012663 0.068665 1.005349
2004-04-05 08:01:09 51°13.629 2°55.986 19.461735 0.012663 0.068668 0.97164
2004-04-05 08:01:14 51°13.632 2°55.977 19.995095 0.012767 0.069198 1.005349
2004-04-05 08:01:19 51°13.635 2°55.968 20.36851 0.012663 0.068677 1.039059
2004-04-05 08:01:23 51°13.637 2°55.961 20.36851 0.012663 0.068677 1.039059
2004-04-05 08:01:29 51°13.64 2°55.95 20.172443 0.012767 0.069209 0.97164
2004-04-05 08:01:34 51°13.643 2°55.941 19.939065 0.012663 0.068686 1.039059
2004-04-05 08:01:39 51°13.646 2°55.932 19.967895 0.012767 0.069218 1.072768
2004-04-05 08:01:43 51°13.649 2°55.924 20.018036 0.012767 0.069222 1.005349
2004-04-05 08:01:49 51°13.652 2°55.913 21.118549 0.012767 0.069225 1.005349
2004-04-05 08:01:54 51°13.655 2°55.904 21.118549 0.012767 0.069225 1.005349
2004-04-05 08:01:59 51°13.658 2°55.895 20.115666 0.012767 0.069231 0.93793
2004-04-05 08:02:04 51°13.661 2°55.885 20.804798 0.012767 0.069234 0.904221
2004-04-05 08:02:09 51°13.664 2°55.875 20.719654 0.012767 0.069234 0.836802
2004-04-05 08:02:14 51°13.667 2°55.865 20.370079 0.012767 0.069236 0.769383
2004-04-05 08:02:19 51°13.669 2°55.856 20.320914 0.012767 0.069239 0.701965
2004-04-05 08:02:24 51°13.672 2°55.846 20.320914 0.012767 0.069239 0.701965
2004-04-05 08:02:29 51°13.674 2°55.837 19.808737 0.012767 0.069244 0.668255
2004-04-05 08:02:33 51°13.675 2°55.83 20.257765 0.012767 0.069247 0.668255
2004-04-05 08:02:39 51°13.677 2°55.819 19.104892 0.012767 0.069251 0.701965
2004-04-05 08:02:43 51°13.678 2°55.812 20.189839 0.012767 0.069254 0.701965
2004-04-05 08:02:49 51°13.68 2°55.801 20.105848 0.012767 0.069259 0.668255
2004-04-05 08:02:54 51°13.681 2°55.794 20.105848 0.012767 0.069259 0.668255
2004-04-05 08:02:59 51°13.681 2°55.787 20.298191 0.012767 0.069263 0.701965
2004-04-05 08:03:03 51°13.682 2°55.783 20.749728 0.012767 0.069267 0.735674
2004-04-05 08:03:07 51°13.682 2°55.78 20.198757 0.012767 0.069271 0.769383
2004-04-05 08:03:13 51°13.683 2°55.776 20.525084 0.012767 0.069279 0.735674
2004-04-05 08:03:18 51°13.683 2°55.775 20.865621 0.012767 0.069283 0.701965
2004-04-05 08:03:23 51°13.684 2°55.776 20.865621 0.012767 0.069283 0.701965
2004-04-05 08:03:29 51°13.685 2°55.778 21.425883 0.012767 0.069285 0.735674
2004-04-05 08:03:33 51°13.685 2°55.779 20.636813 0.012663 0.068763 0.634546
2004-04-05 08:03:38 51°13.686 2°55.781 19.867344 0.012767 0.06929 0.634546
2004-04-05 08:03:43 51°13.686 2°55.782 19.999991 0.012767 0.06929 0.600836
2004-04-05 08:03:49 51°13.686 2°55.781 19.436654 0.012767 0.069293 0.634546
2004-04-05 08:03:53 51°13.685 2°55.78 19.436654 0.012767 0.069293 0.634546
2004-04-05 08:03:58 51°13.684 2°55.778 19.842812 0.012767 0.069297 0.735674
2004-04-05 08:04:03 51°13.683 2°55.775 19.982953 0.012767 0.0693 0.803093
2004-04-05 08:04:07 51°13.682 2°55.773 20.886523 0.012767 0.069304 0.769383
2004-04-05 08:04:14 51°13.68 2°55.768 20.081925 0.012767 0.069308 0.803093
2004-04-05 08:04:19 51°13.679 2°55.764 20.331869 0.012767 0.069314 0.769383
2004-04-05 08:04:23 51°13.678 2°55.762 20.331869 0.012767 0.069314 0.769383
2004-04-05 08:04:29 51°13.677 2°55.761 20.431318 0.012767 0.069317 0.735674
2004-04-05 08:04:34 51°13.678 2°55.762 19.652512 0.012767 0.06932 0.735674
2004-04-05 08:04:39 51°13.68 2°55.763 19.898351 0.012767 0.069325 0.701965
2004-04-05 08:04:44 51°13.683 2°55.765 19.684183 0.012767 0.069334 0.735674
2004-04-05 08:04:49 51°13.687 2°55.767 20.941167 0.012767 0.069341 0.668255
2004-04-05 08:04:54 51°13.692 2°55.767 20.941167 0.012767 0.069341 0.668255
2004-04-05 08:04:59 51°13.697 2°55.767 20.400343 0.012767 0.069345 0.701965
2004-04-05 08:05:03 51°13.702 2°55.766 20.184229 0.012767 0.069349 0.701965
2004-04-05 08:05:07 51°13.707 2°55.763 20.480929 0.012767 0.06935 0.836802
2004-04-05 08:05:13 51°13.713 2°55.758 20.265062 0.012767 0.069352 0.836802
2004-04-05 08:05:18 51°13.719 2°55.752 20.462439 0.012767 0.069352 0.735674
2004-04-05 08:05:23 51°13.723 2°55.747 20.462439 0.012767 0.069352 0.735674
2004-04-05 08:05:27 51°13.728 2°55.742 20.652852 0.012767 0.069351 0.668255
2004-04-05 08:05:33 51°13.734 2°55.734 20.128915 0.012767 0.069348 0.567127
2004-04-05 08:05:38 51°13.74 2°55.727 18.737525 0.012767 0.069348 0.567127
2004-04-05 08:05:43 51°13.746 2°55.719 20.009621 0.012767 0.069351 0.600836
2004-04-05 08:05:49 51°13.753 2°55.71 19.159012 0.012767 0.069353 0.533418
2004-04-05 08:05:53 51°13.758 2°55.703 19.159012 0.012767 0.069353 0.533418
2004-04-05 08:05:59 51°13.766 2°55.693 19.69918 0.012767 0.069358 0.499708
2004-04-05 08:06:03 51°13.771 2°55.687 19.835471 0.012767 0.069363 0.465999
2004-04-05 08:06:09 51°13.78 2°55.677 19.989915 0.012767 0.069368 0.533418
2004-04-05 08:06:13 51°13.787 2°55.671 19.813809 0.012767 0.069373 0.499708
2004-04-05 08:06:18 51°13.795 2°55.663 20.66087 0.012767 0.069379 0.499708
2004-04-05 08:06:23 51°13.803 2°55.655 20.66087 0.012767 0.069379 0.499708
2004-04-05 08:06:29 51°13.813 2°55.645 20.334729 0.012767 0.069385 0.533418
2004-04-05 08:06:33 51°13.821 2°55.639 19.833484 0.012767 0.06939 0.499708
2004-04-05 08:06:37 51°13.828 2°55.632 20.728025 0.012767 0.069394 0.499708
2004-04-05 08:06:43 51°13.839 2°55.623 20.502668 0.012767 0.069399 0.567127
2004-04-05 08:06:54 51°13.86 2°55.606 18.142352 0.012767 0.069405 0.567127
2004-04-05 08:06:58 51°13.868 2°55.601 19.867628 0.012767 0.06941 0.533418
2004-04-05 08:07:03 51°13.878 2°55.594 19.949149 0.012767 0.069415 0.533418
2004-04-05 08:07:07 51°13.887 2°55.588 19.6865 0.012767 0.06942 0.567127
2004-04-05 08:07:13 51°13.899 2°55.58 20.891877 0.012767 0.069425 0.499708
2004-04-05 08:07:18 51°13.909 2°55.572 20.770705 0.012767 0.069428 0.499708
2004-04-05 08:07:23 51°13.919 2°55.565 20.770705 0.012767 0.069428 0.499708
2004-04-05 08:07:27 51°13.927 2°55.56 18.854561 0.012767 0.069434 0.465999
2004-04-05 08:07:33 51°13.939 2°55.551 18.990903 0.012767 0.069436 0.465999
2004-04-05 08:07:37 51°13.947 2°55.545 19.443424 0.012767 0.06944 0.499708
2004-04-05 08:07:43 51°13.96 2°55.536 19.891745 0.012767 0.069444 0.499708
2004-04-05 08:07:49 51°13.972 2°55.527 20.380907 0.012767 0.069447 0.465999
2004-04-05 08:07:53 51°13.98 2°55.521 20.380907 0.012767 0.069447 0.465999
2004-04-05 08:07:57 51°13.989 2°55.515 20.154962 0.012767 0.069451 0.432289
2004-04-05 08:08:03 51°14.001 2°55.506 20.311004 0.012767 0.069454 0.432289
2004-04-05 08:08:09 51°14.013 2°55.497 21.466837 0.012767 0.069457 -0.781249
2004-04-05 08:08:13 51°14.022 2°55.491 21.51054 0.012767 0.06946 -0.781249
2004-04-05 08:08:18 51°14.032 2°55.484 19.619647 0.012767 0.069464 -0.680121
2004-04-05 08:08:23 51°14.043 2°55.477 19.619647 0.012767 0.069464 -0.680121
2004-04-05 08:08:29 51°14.055 2°55.468 15.599655 0.012767 0.069467 -0.680121
2004-04-05 08:08:33 51°14.064 2°55.462 15.02536 0.012767 0.069471 -0.612702
2004-04-05 08:08:38 51°14.075 2°55.454 15.252289 0.012767 0.069472 -0.646411
2004-04-05 08:08:43 51°14.086 2°55.445 15.502131 0.012767 0.069473 -0.680121
2004-04-05 08:08:49 51°14.1 2°55.435 15.575072 0.012767 0.069475 -0.680121
2004-04-05 08:08:53 51°14.11 2°55.428 15.575072 0.012767 0.069475 -0.680121
2004-04-05 08:08:59 51°14.124 2°55.418 15.555916 0.012767 0.069479 -0.646411
2004-04-05 08:09:03 51°14.134 2°55.41 15.520223 0.012767 0.069481 -0.680121
2004-04-05 08:09:07 51°14.144 2°55.402 15.508695 0.012767 0.069484 -0.680121
2004-04-05 08:09:13 51°14.158 2°55.389 15.52264 0.012767 0.069487 -0.646411
2004-04-05 08:09:19 51°14.172 2°55.375 15.558376 0.012767 0.069489 -0.646411
2004-04-05 08:09:23 51°14.182 2°55.365 15.558376 0.012767 0.069489 -0.646411
2004-04-05 08:09:29 51°14.196 2°55.35 15.590729 0.012767 0.072757 -0.646411
2004-04-05 08:09:33 51°14.205 2°55.339 15.593187 0.012767 0.073946 -0.680121
2004-04-05 08:09:38 51°14.216 2°55.325 15.608753 0.012767 0.073042 -0.680121
2004-04-05 08:09:43 51°14.227 2°55.31 15.444327 0.012767 0.071982 -0.74754
2004-04-05 08:09:49 51°14.239 2°55.292 13.422311 0.014741 0.080903 -0.781249
2004-04-05 08:09:53 51°14.247 2°55.278 13.422311 0.014741 0.080903 -0.781249
2004-04-05 08:09:59 51°14.259 2°55.258 11.452288 3.091467 22.90666 3.938067
2004-04-05 08:10:03 51°14.268 2°55.245 10.906372 3.418788 26.527972 6.634819
2004-04-05 08:10:07 51°14.276 2°55.232 10.493252 3.331161 26.367166 6.466272
2004-04-05 08:10:13 51°14.288 2°55.21 10.183575 3.21712 26.275137 11.724939
2004-04-05 08:10:18 51°14.298 2°55.192 10.07198 3.122998 26.323275 15.63523
2004-04-05 08:10:23 51°14.309 2°55.173 10.07198 3.122998 26.323275 15.63523
2004-04-05 08:10:29 51°14.322 2°55.152 10.089219 2.972253 25.491923 16.916187
2004-04-05 08:10:33 51°14.33 2°55.137 9.916488 2.922894 25.391886 17.051024
2004-04-05 08:10:38 51°14.341 2°55.119 9.855551 2.907847 25.474034 16.74764
2004-04-05 08:10:43 51°14.351 2°55.101 9.910336 2.90448 25.567155 17.051024
2004-04-05 08:10:47 51°14.36 2°55.086 9.818312 2.917006 25.758337 17.388118
2004-04-05 08:10:53 51°14.373 2°55.065 9.818312 2.917006 25.758337 17.388118
2004-04-05 08:10:58 51°14.383 2°55.045 9.731385 2.944372 26.112544 18.298272
2004-04-05 08:11:03 51°14.392 2°55.025 9.683189 2.979635 26.528724 19.275845
2004-04-05 08:11:09 51°14.401 2°54.999 9.687006 3.017425 26.925564 20.219708
2004-04-05 08:11:13 51°14.407 2°54.981 9.658064 3.046165 27.263799 21.23099
2004-04-05 08:11:18 51°14.414 2°54.958 9.649199 3.0648 27.500531 21.905178
2004-04-05 08:11:23 51°14.42 2°54.935 9.649199 3.0648 27.500531 21.905178
2004-04-05 08:11:28 51°14.425 2°54.911 9.651227 3.078382 27.674409 22.208563
2004-04-05 08:11:33 51°14.429 2°54.887 9.607171 3.08712 27.776859 22.646785
2004-04-05 08:11:37 51°14.431 2°54.867 9.589993 3.09249 27.844686 22.781623
2004-04-05 08:11:43 51°14.433 2°54.837 9.594052 3.096386 27.904859 22.882751
2004-04-05 08:11:49 51°14.434 2°54.806 9.566532 3.117443 28.134976 23.253554
2004-04-05 08:11:53 51°14.434 2°54.785 9.566532 3.117443 28.134976 23.253554
2004-04-05 08:11:57 51°14.434 2°54.764 9.541031 3.163983 28.619083 24.06258
2004-04-05 08:12:03 51°14.432 2°54.732 9.538291 3.210737 29.09645 25.478375
2004-04-05 08:12:09 51°14.429 2°54.7 9.52015 3.249806 29.501908 26.219982
2004-04-05 08:12:13 51°14.426 2°54.679 9.496144 3.311628 30.147958 26.725623
2004-04-05 08:12:18 51°14.421 2°54.653 9.49241 3.368927 30.737749 27.602067
2004-04-05 08:12:23 51°14.415 2°54.628 9.49241 3.368927 30.737749 27.602067
2004-04-05 08:12:29 51°14.406 2°54.597 9.500397 3.419278 31.267517 27.972871
2004-04-05 08:12:33 51°14.401 2°54.576 9.526056 3.465946 31.759484 28.613349
2004-04-05 08:12:38 51°14.394 2°54.551 9.466028 3.505137 32.173104 29.422375
2004-04-05 08:12:43 51°14.386 2°54.525 9.464137 3.53685 32.500313 30.939298
2004-04-05 08:12:47 51°14.379 2°54.504 9.490897 3.559819 32.739408 31.444939
2004-04-05 08:12:53 51°14.37 2°54.473 9.490897 3.559819 32.739408 31.444939
2004-04-05 08:12:58 51°14.363 2°54.447 9.486737 3.569723 32.834687 31.782033
2004-04-05 08:13:03 51°14.355 2°54.42 9.448577 3.591218 33.076394 31.883161
2004-04-05 08:13:07 51°14.348 2°54.399 9.462529 3.600385 33.172557 32.692187
2004-04-05 08:13:13 51°14.339 2°54.367 9.464846 3.600175 33.165109 32.422512
2004-04-05 08:13:18 51°14.331 2°54.34 9.424733 3.611028 33.283896 32.928153
2004-04-05 08:13:23 51°14.324 2°54.313 9.424733 3.611028 33.283896 32.928153
2004-04-05 08:13:27 51°14.317 2°54.291 9.435142 3.619247 33.382619 33.467503
2004-04-05 08:13:33 51°14.307 2°54.259 9.416121 3.617983 33.370408 33.197828
2004-04-05 08:13:38 51°14.299 2°54.232 9.431168 3.626413 33.468352 32.725896
2004-04-05 08:13:43 51°14.291 2°54.205 9.405803 3.631892 33.542976 33.0967
2004-04-05 08:13:47 51°14.284 2°54.183 9.396668 3.632419 33.552219 33.0967
2004-04-05 08:13:53 51°14.275 2°54.15 9.396668 3.632419 33.552219 33.0967
2004-04-05 08:13:57 51°14.268 2°54.128 9.405188 3.635581 33.593908 32.793315
2004-04-05 08:14:03 51°14.259 2°54.094 9.425254 3.636002 33.603613 33.231537
2004-04-05 08:14:07 51°14.252 2°54.072 9.414464 3.639901 33.656004 33.298956
2004-04-05 08:14:13 51°14.242 2°54.039 9.405803 3.640323 33.662648 33.197828
2004-04-05 08:14:18 51°14.234 2°54.011 9.400597 3.638321 33.639743 32.692187
2004-04-05 08:14:23 51°14.226 2°53.983 9.400597 3.638321 33.639743 32.692187
2004-04-05 08:14:29 51°14.215 2°53.95 9.387389 3.639374 33.65289 32.658477
2004-04-05 08:14:33 51°14.209 2°53.927 9.390892 3.640323 33.665725 32.894443
2004-04-05 08:14:38 51°14.2 2°53.899 9.394017 3.617035 33.423173 32.119127
2004-04-05 08:14:43 51°14.192 2°53.871 9.40107 3.630628 33.556792 33.029281
2004-04-05 08:14:49 51°14.182 2°53.838 9.383885 3.643168 33.701163 32.253965
2004-04-05 08:14:53 51°14.175 2°53.815 9.383885 3.643168 33.701163 32.253965
2004-04-05 08:14:58 51°14.167 2°53.788 9.372994 3.644643 33.714037 32.287674
2004-04-05 08:15:03 51°14.159 2°53.759 9.39965 3.644643 33.702482 31.41123
2004-04-05 08:15:07 51°14.152 2°53.736 9.387199 3.642536 33.690805 30.871879
2004-04-05 08:15:13 51°14.143 2°53.703 9.372379 3.643168 33.711181 30.568494
2004-04-05 08:15:18 51°14.134 2°53.674 9.369348 3.646119 33.747735 30.26511
2004-04-05 08:15:23 51°14.126 2°53.646 9.369348 3.646119 33.747735 30.26511
2004-04-05 08:15:27 51°14.12 2°53.623 9.36357 3.64496 33.732711 29.894306
2004-04-05 08:15:33 51°14.109 2°53.59 9.356228 3.645908 33.745564 30.163982
2004-04-05 08:15:38 51°14.1 2°53.562 9.360207 3.6477 33.770193 30.062853
2004-04-05 08:15:43 51°14.092 2°53.534 9.345096 3.648437 33.783975 30.130272
2004-04-05 08:15:47 51°14.086 2°53.511 9.337942 3.648121 33.789222 30.568494
2004-04-05 08:15:53 51°14.076 2°53.477 9.337942 3.648121 33.789222 30.568494
2004-04-05 08:15:57 51°14.069 2°53.454 9.344622 3.650229 33.813266 30.80446
2004-04-05 08:16:03 51°14.059 2°53.421 9.329081 3.651177 33.828462 30.568494
2004-04-05 08:16:07 51°14.052 2°53.398 9.337421 3.651388 33.838382 29.961725
2004-04-05 08:16:13 51°14.042 2°53.365 9.327375 3.651915 33.84614 29.995435
2004-04-05 08:16:18 51°14.034 2°53.337 9.315337 3.65202 33.850328 29.826888
2004-04-05 08:16:23 51°14.026 2°53.309 9.315337 3.65202 33.850328 29.826888
2004-04-05 08:16:29 51°14.016 2°53.275 9.32946 3.652021 33.85498 29.523503
2004-04-05 08:16:33 51°14.009 2°53.253 9.310692 3.651704 33.854821 29.085281
2004-04-05 08:16:38 51°14.001 2°53.225 9.318607 3.652864 33.875317 28.54593
2004-04-05 08:16:43 51°13.992 2°53.196 9.300974 3.652969 33.882616 28.276255
2004-04-05 08:16:47 51°13.986 2°53.174 9.314721 3.652337 33.876866 28.175127
2004-04-05 08:16:53 51°13.976 2°53.14 9.314721 3.652337 33.876866 28.175127
2004-04-05 08:16:58 51°13.968 2°53.112 9.313915 3.653391 33.88619 28.040289
2004-04-05 08:17:03 51°13.959 2°53.083 9.302301 3.653074 33.880597 27.43352
2004-04-05 08:17:09 51°13.95 2°53.049 9.294384 3.653707 33.887123 26.995298
2004-04-05 08:17:13 51°13.943 2°53.027 9.286276 3.653917 33.887745 26.826751
2004-04-05 08:17:18 51°13.934 2°52.998 9.274942 3.653917 33.888522 26.759332
2004-04-05 08:17:23 51°13.926 2°52.969 9.274942 3.653917 33.888522 26.759332
2004-04-05 08:17:29 51°13.916 2°52.935 9.282719 3.65455 33.901263 26.017725
2004-04-05 08:17:33 51°13.91 2°52.912 9.272096 3.655077 33.914476 25.680631
2004-04-05 08:17:38 51°13.901 2°52.884 9.26925 3.655077 33.916809 25.444665
2004-04-05 08:17:43 51°13.891 2°52.857 9.265788 3.655709 33.932676 25.377247
2004-04-05 08:17:47 51°13.883 2°52.835 9.255684 3.655604 33.935479 24.871606
2004-04-05 08:17:53 51°13.871 2°52.803 9.255684 3.655604 33.935479 24.871606
2004-04-05 08:17:57 51°13.863 2°52.781 9.256111 3.655709 33.937346 24.63564
2004-04-05 08:18:03 51°13.85 2°52.749 9.254545 3.656236 33.948241 24.264836
2004-04-05 08:18:09 51°13.837 2°52.718 9.241307 3.656342 33.953225 24.06258
2004-04-05 08:18:13 51°13.828 2°52.697 9.238508 3.656974 33.964436 24.669349
2004-04-05 08:18:17 51°13.819 2°52.676 9.232765 3.657923 33.98516 24.231127
2004-04-05 08:18:23 51°13.806 2°52.645 9.232765 3.657923 33.98516 24.231127
2004-04-05 08:18:29 51°13.793 2°52.613 9.228969 3.657606 33.982671 24.871606
2004-04-05 08:18:33 51°13.784 2°52.592 9.228969 3.658871 34.000431 24.500802
2004-04-05 08:18:38 51°13.774 2°52.566 9.235281 3.659503 34.016344 25.073862
2004-04-05 08:18:43 51°13.763 2°52.54 9.231484 3.658977 34.009331 25.478375
2004-04-05 08:18:49 51°13.75 2°52.508 9.225694 3.660557 34.030374 26.186272
2004-04-05 08:18:53 51°13.742 2°52.487 9.225694 3.660557 34.030374 26.186272
2004-04-05 08:18:59 51°13.729 2°52.455 9.22014 3.659187 34.018544 26.961589
2004-04-05 08:19:03 51°13.721 2°52.434 9.222466 3.659082 34.017453 27.635777
2004-04-05 08:19:09 51°13.707 2°52.403 9.219618 3.658977 34.019489 27.838033
2004-04-05 08:19:13 51°13.699 2°52.382 9.221754 3.658871 34.016836 28.411093
2004-04-05 08:19:19 51°13.686 2°52.35 9.21321 3.659187 34.024798 29.11899
2004-04-05 08:19:23 51°13.677 2°52.329 9.21321 3.659187 34.024798 29.11899
2004-04-05 08:19:29 51°13.664 2°52.297 9.214444 3.659609 34.032288 28.748187
2004-04-05 08:19:33 51°13.656 2°52.276 9.204379 3.659082 34.027617 29.321247
2004-04-05 08:19:38 51°13.645 2°52.25 9.207608 3.658977 34.029654 29.287537
2004-04-05 08:19:43 51°13.635 2°52.224 9.202385 3.660031 34.044475 29.590922
2004-04-05 08:19:47 51°13.626 2°52.204 9.19626 3.658871 34.036387 29.354956
2004-04-05 08:19:53 51°13.613 2°52.172 9.19626 3.658871 34.036387 29.354956
2004-04-05 08:19:58 51°13.602 2°52.146 9.192889 3.659609 34.048721 29.220118
2004-04-05 08:20:03 51°13.592 2°52.12 9.18738 3.658766 34.041557 29.321247
2004-04-05 08:20:09 51°13.579 2°52.088 9.173796 3.658239 34.035318 29.017862
2004-04-05 08:20:13 51°13.571 2°52.067 9.173796 3.659082 34.051095 29.051571
2004-04-05 08:20:18 51°13.56 2°52.041 9.165863 3.658977 34.054703 29.1527
2004-04-05 08:20:23 51°13.549 2°52.014 9.165863 3.658977 34.054703 29.1527
2004-04-05 08:20:29 51°13.537 2°51.982 9.167811 3.658029 34.051929 28.647059
2004-04-05 08:20:33 51°13.529 2°51.961 9.16173 3.659399 34.072394 29.186409
2004-04-05 08:20:37 51°13.52 2°51.94 9.160637 3.659399 34.075531 28.984153
2004-04-05 08:20:43 51°13.507 2°51.908 9.15503 3.658977 34.076653 29.489794
2004-04-05 08:20:49 51°13.494 2°51.877 9.149661 3.659083 34.083238 29.354956
2004-04-05 08:20:53 51°13.486 2°51.856 9.149661 3.659083 34.083238 29.354956
2004-04-05 08:20:57 51°13.477 2°51.835 9.146477 3.657291 34.069372 29.085281
2004-04-05 08:21:03 51°13.464 2°51.804 9.145717 3.658661 34.084361 28.984153
2004-04-05 08:21:09 51°13.452 2°51.773 9.160447 3.658556 34.086408 28.714477
2004-04-05 08:21:13 51°13.444 2°51.751 9.139206 3.659294 34.101126 29.489794
2004-04-05 08:21:18 51°13.433 2°51.725 9.136544 3.658556 34.095046 29.253828
2004-04-05 08:21:23 51°13.423 2°51.699 9.136544 3.658556 34.095046 29.253828
2004-04-05 08:21:29 51°13.41 2°51.667 9.133788 3.658345 34.09286 29.085281
2004-04-05 08:21:33 51°13.401 2°51.646 9.131506 3.657186 34.080837 29.11899
2004-04-05 08:21:38 51°13.39 2°51.62 9.134215 3.65824 34.097266 28.950443
2004-04-05 08:21:43 51°13.38 2°51.594 9.132552 3.658029 34.099794 29.253828
2004-04-05 08:21:47 51°13.371 2°51.573 9.140442 3.657924 34.101844 28.950443
2004-04-05 08:21:53 51°13.358 2°51.542 9.140442 3.657924 34.101844 28.950443
2004-04-05 08:21:58 51°13.348 2°51.516 9.132837 3.657924 34.104988 28.54593
2004-04-05 08:22:03 51°13.338 2°51.49 9.136449 3.657397 34.098734 28.815606
2004-04-05 08:22:07 51°13.33 2°51.469 9.131411 3.657397 34.097949 28.309965
2004-04-05 08:22:13 51°13.317 2°51.438 9.122522 3.657081 34.093097 28.141418
2004-04-05 08:22:19 51°13.306 2°51.405 9.125707 3.657397 34.095591 28.647059
2004-04-05 08:22:23 51°13.298 2°51.384 9.125707 3.657397 34.095591 28.647059
2004-04-05 08:22:29 51°13.287 2°51.351 9.124138 3.657502 34.095899 27.838033
2004-04-05 08:22:33 51°13.28 2°51.33 9.11986 3.657608 34.101708 27.838033
2004-04-05 08:22:39 51°13.268 2°51.297 9.115058 3.657081 34.101742 27.534648
2004-04-05 08:22:43 51°13.26 2°51.276 9.107593 3.657081 34.103315 27.264973
2004-04-05 08:22:49 51°13.249 2°51.243 9.108925 3.65666 34.102871 27.130136
2004-04-05 08:22:53 51°13.241 2°51.222 9.108925 3.65666 34.102871 27.130136
2004-04-05 08:22:58 51°13.232 2°51.195 9.096561 3.655922 34.096787 26.691913
2004-04-05 08:23:03 51°13.222 2°51.168 9.093707 3.655817 34.098838 26.455947
2004-04-05 08:23:09 51°13.211 2°51.136 9.092946 3.655395 34.097608 26.186272
2004-04-05 08:23:13 51°13.204 2°51.114 9.089094 3.655606 34.104515 26.455947
2004-04-05 08:23:18 51°13.194 2°51.088 9.088904 3.65529 34.101233 26.118853
2004-04-05 08:23:23 51°13.185 2°51.06 9.088904 3.65529 34.101233 26.118853
2004-04-05 08:23:27 51°13.178 2°51.039 9.096371 3.655185 34.111155 25.984016
2004-04-05 08:23:33 51°13.167 2°51.007 9.093279 3.654342 34.106334 26.186272
2004-04-05 08:23:38 51°13.158 2°50.98 9.09775 3.654342 34.108696 25.781759
2004-04-05 08:23:43 51°13.148 2°50.953 9.107355 3.654236 34.112325 25.984016
2004-04-05 08:23:49 51°13.138 2°50.92 9.111825 3.654026 34.107773 25.74805
2004-04-05 08:23:53 51°13.13 2°50.899 9.111825 3.654026 34.107773 25.74805
2004-04-05 08:23:58 51°13.121 2°50.871 9.111777 3.653183 34.095867 26.017725
2004-04-05 08:24:03 51°13.112 2°50.845 9.122665 3.652972 34.090531 25.74805
2004-04-05 08:24:09 51°13.1 2°50.813 9.128607 3.652023 34.07439 25.613212
2004-04-05 08:24:13 51°13.093 2°50.791 9.130461 3.652445 34.077194 25.410956
2004-04-05 08:24:19 51°13.082 2°50.758 9.135024 3.651707 34.066391 25.714341
2004-04-05 08:24:23 51°13.074 2°50.737 9.135024 3.651707 34.066391 25.714341
2004-04-05 08:24:29 51°13.063 2°50.705 9.136354 3.652234 34.06636 25.444665
2004-04-05 08:24:33 51°13.056 2°50.683 9.139396 3.651918 34.056795 25.410956
2004-04-05 08:24:39 51°13.044 2°50.651 9.139301 3.651707 34.049111 25.579503
2004-04-05 08:24:43 51°13.037 2°50.629 9.146715 3.651812 34.04785 25.309828
2004-04-05 08:24:47 51°13.029 2°50.608 9.149376 3.651601 34.042523 25.410956
2004-04-05 08:24:53 51°13.018 2°50.575 9.149376 3.651601 34.042523 25.410956
2004-04-05 08:24:58 51°13.009 2°50.548 9.16515 3.651391 34.036414 25.579503
2004-04-05 08:25:03 51°13 2°50.521 9.175173 3.652234 34.046729 25.478375
2004-04-05 08:25:07 51°12.992 2°50.499 9.182298 3.651601 34.036247 25.984016
2004-04-05 08:25:13 51°12.981 2°50.466 9.192224 3.651707 34.03185 26.219982
2004-04-05 08:25:18 51°12.972 2°50.439 9.201341 3.65139 34.01838 27.231264
2004-04-05 08:25:23 51°12.963 2°50.412 9.201341 3.65139 34.01838 27.231264
2004-04-05 08:25:29 51°12.952 2°50.38 9.207038 3.651601 34.012731 27.264973
2004-04-05 08:25:33 51°12.945 2°50.358 9.214729 3.652022 34.010052 27.770614
2004-04-05 08:25:39 51°12.933 2°50.326 9.215916 3.652022 33.999875 28.107708
2004-04-05 08:25:43 51°12.926 2°50.304 9.220425 3.651917 33.99096 28.377383
2004-04-05 08:25:49 51°12.915 2°50.271 9.229538 3.652654 33.992344 28.107708
2004-04-05 08:25:53 51°12.907 2°50.25 9.229538 3.652654 33.992344 28.107708
2004-04-05 08:25:57 51°12.9 2°50.229 9.22783 3.653076 33.992018 28.478512
2004-04-05 08:26:03 51°12.888 2°50.197 9.233098 3.653392 33.987474 28.107708
2004-04-05 08:26:07 51°12.881 2°50.175 9.237796 3.653392 33.985129 28.107708
2004-04-05 08:26:13 51°12.87 2°50.143 9.234664 3.653497 33.982313 28.309965
2004-04-05 08:26:18 51°12.861 2°50.117 9.232528 3.653603 33.978717 28.411093
2004-04-05 08:26:23 51°12.852 2°50.09 9.232528 3.653603 33.978717 28.411093
2004-04-05 08:26:29 51°12.841 2°50.057 9.242636 3.653181 33.97045 27.905452
2004-04-05 08:26:33 51°12.833 2°50.036 9.239931 3.653392 33.971069 27.635777
2004-04-05 08:26:38 51°12.824 2°50.01 9.234379 3.652759 33.966087 27.703195
2004-04-05 08:26:43 51°12.814 2°49.983 9.236657 3.654762 33.985246 27.130136
2004-04-05 08:26:49 51°12.803 2°49.951 9.228494 3.654235 33.978231 26.961589
2004-04-05 08:26:53 51°12.795 2°49.929 9.228494 3.654235 33.978231 26.961589
2004-04-05 08:26:58 51°12.787 2°49.903 9.224887 3.654445 33.982755 26.557076
2004-04-05 08:27:03 51°12.777 2°49.875 9.221944 3.65434 33.980103 26.523366
2004-04-05 08:27:09 51°12.767 2°49.843 9.211786 3.654129 33.978703 26.388529
2004-04-05 08:27:13 51°12.759 2°49.821 9.209175 3.653813 33.976212 26.017725
2004-04-05 08:27:18 51°12.75 2°49.793 9.200391 3.653708 33.982932 25.882888
2004-04-05 08:27:23 51°12.741 2°49.766 9.200391 3.653708 33.982932 25.882888
2004-04-05 08:27:29 51°12.729 2°49.734 9.190229 3.654867 33.995713 26.152563
2004-04-05 08:27:33 51°12.721 2°49.713 9.186952 3.655183 34.006022 25.444665
2004-04-05 08:27:37 51°12.714 2°49.69 9.192461 3.655183 34.009932 25.006443
2004-04-05 08:27:43 51°12.703 2°49.658 9.174793 3.655289 34.018065 24.905315
2004-04-05 08:27:47 51°12.696 2°49.636 9.157311 3.6555 34.02651 24.972734
2004-04-05 08:27:54 51°12.682 2°49.598 9.157311 3.6555 34.02651 24.972734
2004-04-05 08:27:58 51°12.675 2°49.576 9.154318 3.655289 34.029808 24.568221
2004-04-05 08:28:03 51°12.666 2°49.549 9.150706 3.654762 34.026698 24.534512
2004-04-05 08:28:07 51°12.658 2°49.527 9.146335 3.654657 34.034223 24.63564
2004-04-05 08:28:13 51°12.647 2°49.494 9.136022 3.654552 34.041751 24.163708
2004-04-05 08:28:18 51°12.637 2°49.467 9.134928 3.654552 34.048808 23.961452
2004-04-05 08:28:23 51°12.628 2°49.439 9.134928 3.654552 34.048808 23.961452
2004-04-05 08:28:29 51°12.617 2°49.406 9.127038 3.654236 34.051805 23.860324
2004-04-05 08:28:33 51°12.61 2°49.383 9.125469 3.653814 34.054494 23.52323
2004-04-05 08:28:38 51°12.6 2°49.356 9.12043 3.654552 34.069997 24.028871
2004-04-05 08:28:43 51°12.591 2°49.328 9.112158 3.653287 34.062373 23.759195
2004-04-05 08:28:47 51°12.583 2°49.307 9.112491 3.653288 34.067085 23.624358
2004-04-05 08:28:53 51°12.572 2°49.273 9.112491 3.653288 34.067085 23.624358
2004-04-05 08:28:58 51°12.563 2°49.246 9.106642 3.652971 34.067732 23.051298
2004-04-05 08:29:03 51°12.553 2°49.219 9.106737 3.652234 34.062432 23.590648
2004-04-05 08:29:09 51°12.542 2°49.186 9.105263 3.652445 34.07012 23.152426
2004-04-05 08:29:13 51°12.535 2°49.164 9.091234 3.652023 34.068887 23.118717
2004-04-05 08:29:18 51°12.526 2°49.136 9.082387 3.651707 34.069535 23.287264
2004-04-05 08:29:23 51°12.516 2°49.109 9.082387 3.651707 34.069535 23.287264
2004-04-05 08:29:29 51°12.506 2°49.075 9.081769 3.652656 34.082528 23.253554
2004-04-05 08:29:33 51°12.498 2°49.054 9.071683 3.651707 34.076611 23.52323
2004-04-05 08:29:39 51°12.487 2°49.021 9.071398 3.652129 34.091216 23.388392
2004-04-05 08:29:43 51°12.48 2°48.998 9.067116 3.651918 34.093749 23.219845
2004-04-05 08:29:49 51°12.469 2°48.965 9.058456 3.651918 34.09611 23.118717
2004-04-05 08:29:53 51°12.462 2°48.943 9.058456 3.651918 34.09611 23.118717
2004-04-05 08:29:58 51°12.452 2°48.915 9.052555 3.651918 34.10241 23.085007
2004-04-05 08:30:03 51°12.443 2°48.887 9.061692 3.651602 34.10385 23.860324
2004-04-05 08:30:07 51°12.436 2°48.865 9.051365 3.651497 34.109058 23.354683
2004-04-05 08:30:14 51°12.423 2°48.826 9.048986 3.650127 34.097967 23.658067
2004-04-05 08:30:19 51°12.413 2°48.799 9.058789 3.651497 34.11694 23.354683
2004-04-05 08:30:23 51°12.406 2°48.777 9.058789 3.651497 34.11694 23.354683
2004-04-05 08:30:29 51°12.395 2°48.744 9.066688 3.650865 34.113518 23.556939
2004-04-05 08:30:33 51°12.387 2°48.722 9.066069 3.651076 34.119653 23.725486
2004-04-05 08:30:38 51°12.378 2°48.694 9.078153 3.651286 34.116325 23.725486
2004-04-05 08:30:43 51°12.369 2°48.667 9.083766 3.650865 34.11273 24.129999
2004-04-05 08:30:49 51°12.358 2°48.633 9.087334 3.650549 34.105501 24.197418
2004-04-05 08:30:53 51°12.35 2°48.611 9.087334 3.650549 34.105501 24.197418
2004-04-05 08:30:59 51°12.339 2°48.578 9.098035 3.650232 34.098275 25.2087
2004-04-05 08:31:03 51°12.331 2°48.556 9.105596 3.649811 34.088379 26.118853
2004-04-05 08:31:07 51°12.324 2°48.534 9.110018 3.6496 34.079104 26.927879
2004-04-05 08:31:13 51°12.313 2°48.501 9.117055 3.649705 34.073117 27.568358
2004-04-05 08:31:18 51°12.304 2°48.474 9.110446 3.650337 34.074965 28.478512
2004-04-05 08:31:23 51°12.294 2°48.446 9.110446 3.650337 34.074965 28.478512
2004-04-05 08:31:29 51°12.283 2°48.413 9.108639 3.650021 34.06539 28.647059
2004-04-05 08:31:33 51°12.276 2°48.391 9.11211 3.650021 34.060673 29.860597
2004-04-05 08:31:38 51°12.267 2°48.363 9.11192 3.650232 34.05736 29.995435
2004-04-05 08:31:43 51°12.257 2°48.336 9.111492 3.650864 34.063139 29.928016
2004-04-05 08:31:49 51°12.246 2°48.303 9.107213 3.651075 34.066114 30.635913
2004-04-05 08:31:53 51°12.239 2°48.281 9.107213 3.651075 34.066114 30.635913
2004-04-05 08:31:58 51°12.229 2°48.254 9.113346 3.650443 34.059548 30.669623
2004-04-05 08:32:03 51°12.22 2°48.226 9.104265 3.650864 34.061567 30.602204
2004-04-05 08:32:07 51°12.213 2°48.204 9.11154 3.650864 34.064711 31.242683
2004-04-05 08:32:13 51°12.201 2°48.171 9.102172 3.651391 34.070969 31.208973
2004-04-05 08:32:18 51°12.192 2°48.143 9.100127 3.651075 34.068472 32.186546
2004-04-05 08:32:23 51°12.183 2°48.115 9.100127 3.651075 34.068472 32.186546
2004-04-05 08:32:29 51°12.172 2°48.082 9.103742 3.650337 34.05924 32.48993
2004-04-05 08:32:33 51°12.164 2°48.06 9.096703 3.651707 34.075038 32.624768
2004-04-05 08:32:38 51°12.155 2°48.032 9.091282 3.651707 34.078184 33.197828
2004-04-05 08:32:43 51°12.146 2°48.004 9.086478 3.651602 34.079449 33.669759
2004-04-05 08:32:49 51°12.135 2°47.971 9.084052 3.651286 34.080098 33.63605
2004-04-05 08:32:53 51°12.127 2°47.949 9.084052 3.651286 34.080098 33.63605
2004-04-05 08:32:57 51°12.12 2°47.927 9.084956 3.65118 34.082937 34.20911
2004-04-05 08:33:03 51°12.108 2°47.894 9.079913 3.652234 34.093885 33.939435
2004-04-05 08:33:07 51°12.101 2°47.871 9.08448 3.652234 34.098608 33.905725
2004-04-05 08:33:14 51°12.088 2°47.832 9.082197 3.652024 34.099567 34.478785
2004-04-05 08:33:19 51°12.079 2°47.804 9.077154 3.651707 34.101794 34.107982
2004-04-05 08:33:23 51°12.071 2°47.782 9.077154 3.651707 34.101794 34.107982
2004-04-05 08:33:29 51°12.06 2°47.749 9.079628 3.652445 34.105523 34.411366
2004-04-05 08:33:33 51°12.052 2°47.727 9.078867 3.652445 34.104735 35.085554
2004-04-05 08:33:38 51°12.043 2°47.699 9.082768 3.651918 34.101622 35.591195
2004-04-05 08:33:43 51°12.034 2°47.672 9.079771 3.652867 34.113842 36.197965
2004-04-05 08:33:49 51°12.023 2°47.638 9.078439 3.653077 34.117609 36.029418
2004-04-05 08:33:53 51°12.016 2°47.615 9.078439 3.653077 34.117609 36.029418
2004-04-05 08:33:57 51°12.008 2°47.593 9.079913 3.653183 34.117916 35.860871
2004-04-05 08:34:03 51°11.997 2°47.56 9.082958 3.656239 34.149683 35.89458
2004-04-05 08:34:08 51°11.988 2°47.533 9.083671 3.653394 34.120107 35.759742
2004-04-05 08:34:13 51°11.978 2°47.505 9.079343 3.653815 34.125277 35.051845
2004-04-05 08:34:18 51°11.969 2°47.478 9.0743 3.65371 34.122605 34.445076
2004-04-05 08:34:23 51°11.96 2°47.45 9.0743 3.65371 34.122605 34.445076
2004-04-05 08:34:29 51°11.948 2°47.417 9.080151 3.653604 34.120722 34.242819
2004-04-05 08:34:33 51°11.941 2°47.395 9.081626 3.65392 34.12716 33.770888
2004-04-05 08:34:38 51°11.932 2°47.367 9.075014 3.654131 34.127775 33.231537
2004-04-05 08:34:43 51°11.922 2°47.339 9.072254 3.65392 34.12716 32.827024
2004-04-05 08:34:49 51°11.911 2°47.306 9.071541 3.65392 34.125584 32.759606
2004-04-05 08:34:53 51°11.904 2°47.284 9.071541 3.65392 34.125584 32.759606
2004-04-05 08:34:59 51°11.893 2°47.25 9.065498 3.653499 34.12199 31.984289
2004-04-05 08:35:03 51°11.887 2°47.228 9.073586 3.656239 34.153628 32.152836
2004-04-05 08:35:09 51°11.877 2°47.193 9.072873 3.654237 34.135177 31.444939
2004-04-05 08:35:13 51°11.871 2°47.17 9.062929 3.653921 34.134256 31.175264
2004-04-05 08:35:19 51°11.862 2°47.135 9.064784 3.653921 34.131102 31.37752
2004-04-05 08:35:23 51°11.856 2°47.112 9.064784 3.653921 34.131102 31.37752
2004-04-05 08:35:29 51°11.847 2°47.077 9.073872 3.653815 34.129218 31.276392
2004-04-05 08:35:33 51°11.842 2°47.053 9.056885 3.654131 34.13487 31.208973
2004-04-05 08:35:37 51°11.836 2°47.03 9.052983 3.654342 34.142583 30.568494
2004-04-05 08:35:43 51°11.828 2°46.994 9.055172 3.654026 34.139296 30.871879
2004-04-05 08:35:47 51°11.822 2°46.971 9.040752 3.653499 34.134605 30.433657
2004-04-05 08:35:53 51°11.813 2°46.935 9.040752 3.653499 34.134605 30.433657
2004-04-05 08:35:57 51°11.808 2°46.911 9.041751 3.653815 34.141048 30.973007
2004-04-05 08:36:03 51°11.799 2°46.876 9.032469 3.654131 34.14986 30.467366
2004-04-05 08:36:09 51°11.791 2°46.841 9.027756 3.653815 34.14894 30.83817
2004-04-05 08:36:13 51°11.785 2°46.817 9.025661 3.654342 34.159948 30.939298
2004-04-05 08:36:19 51°11.776 2°46.782 9.014615 3.654026 34.160608 30.703332
2004-04-05 08:36:23 51°11.771 2°46.758 9.014615 3.654026 34.160608 30.703332
2004-04-05 08:36:27 51°11.765 2°46.735 9.01871 3.654448 34.172106 30.703332
2004-04-05 08:36:33 51°11.756 2°46.699 9.017995 3.654237 34.174654 30.602204
2004-04-05 08:36:38 51°11.749 2°46.67 9.012091 3.654132 34.180673 30.399947
2004-04-05 08:36:43 51°11.742 2°46.641 9.010281 3.654237 34.184934 30.635913
2004-04-05 08:36:47 51°11.736 2°46.617 9.014091 3.653921 34.181643 30.770751
2004-04-05 08:36:53 51°11.728 2°46.582 9.014091 3.653921 34.181643 30.770751
2004-04-05 08:36:58 51°11.721 2°46.553 9.004805 3.653921 34.185598 30.467366
2004-04-05 08:37:03 51°11.714 2°46.524 9.009853 3.653921 34.188763 30.366238
2004-04-05 08:37:09 51°11.705 2°46.488 9.003995 3.653816 34.188457 30.26511
2004-04-05 08:37:13 51°11.7 2°46.465 9.006376 3.653394 34.182484 30.433657
2004-04-05 08:37:18 51°11.692 2°46.435 8.995993 3.653816 34.190831 29.793178
2004-04-05 08:37:23 51°11.685 2°46.406 8.995993 3.653816 34.190831 29.793178
2004-04-05 08:37:29 51°11.677 2°46.37 8.997613 3.6535 34.187538 29.624631
2004-04-05 08:37:33 51°11.671 2°46.347 8.995422 3.654027 34.196192 29.658341
2004-04-05 08:37:37 51°11.665 2°46.323 8.99223 3.653711 34.195274 29.489794
2004-04-05 08:37:43 51°11.657 2°46.287 8.989801 3.654027 34.201734 30.029144
2004-04-05 08:37:49 51°11.648 2°46.252 8.985037 3.653816 34.202706 30.130272
2004-04-05 08:37:53 51°11.642 2°46.229 8.985037 3.653816 34.202706 30.130272
2004-04-05 08:37:57 51°11.636 2°46.206 8.984227 3.653605 34.201302 30.197691
2004-04-05 08:38:03 51°11.628 2°46.171 8.983656 3.653921 34.207765 30.163982
2004-04-05 08:38:09 51°11.619 2°46.136 8.981559 3.653711 34.207945 30.399947
2004-04-05 08:38:13 51°11.614 2°46.112 8.977796 3.652552 34.199035 30.366238
2004-04-05 08:38:18 51°11.606 2°46.083 8.972793 3.653711 34.211907 30.534785
2004-04-05 08:38:23 51°11.6 2°46.053 8.972793 3.653711 34.211907 30.534785
2004-04-05 08:38:29 51°11.591 2°46.018 8.976747 3.653289 34.211477 30.501076
2004-04-05 08:38:33 51°11.585 2°45.994 8.971887 3.653816 34.218554 30.029144
2004-04-05 08:38:37 51°11.58 2°45.971 8.972459 3.654027 34.227095 29.557212
2004-04-05 08:38:43 51°11.571 2°45.935 8.973317 3.6535 34.222394 29.321247
2004-04-05 08:38:49 51°11.562 2°45.9 8.964787 3.653395 34.222882 29.354956
2004-04-05 08:38:53 51°11.557 2°45.876 8.964787 3.653395 34.222882 29.354956
2004-04-05 08:38:57 51°11.551 2°45.853 8.970505 3.653922 34.228376 29.186409
2004-04-05 08:39:03 51°11.542 2°45.818 8.968028 3.6535 34.224774 29.11899
2004-04-05 08:39:09 51°11.534 2°45.783 8.968742 3.653922 34.230755 28.512221
2004-04-05 08:39:13 51°11.527 2°45.76 8.974222 3.6535 34.22874 28.141418
2004-04-05 08:39:18 51°11.52 2°45.731 8.977271 3.653184 34.22703 27.972871
2004-04-05 08:39:23 51°11.513 2°45.702 8.977271 3.653184 34.22703 27.972871
2004-04-05 08:39:29 51°11.504 2°45.668 8.970458 3.652973 34.224039 27.972871
2004-04-05 08:39:33 51°11.499 2°45.645 8.965216 3.653395 34.228435 28.242546
2004-04-05 08:39:38 51°11.492 2°45.615 8.967408 3.653711 34.232525 27.736905
2004-04-05 08:39:43 51°11.485 2°45.586 8.96636 3.653184 34.221478 27.669486
2004-04-05 08:39:49 51°11.476 2°45.551 8.96412 3.653395 34.224468 27.568358
2004-04-05 08:39:53 51°11.47 2°45.528 8.96412 3.653395 34.224468 27.568358
2004-04-05 08:39:58 51°11.463 2°45.499 8.962595 3.653606 34.229046 27.534648
2004-04-05 08:40:03 51°11.456 2°45.47 8.968028 3.653395 34.227641 27.534648
2004-04-05 08:40:09 51°11.447 2°45.435 8.967265 3.653606 34.229839 27.231264
2004-04-05 08:40:13 51°11.442 2°45.412 8.965121 3.653395 34.231608 27.366101
2004-04-05 08:40:19 51°11.433 2°45.377 8.972602 3.653395 34.232402 26.793042
2004-04-05 08:40:23 51°11.427 2°45.354 8.972602 3.653395 34.232402 26.793042
2004-04-05 08:40:29 51°11.419 2°45.318 8.963072 3.653395 34.230815 27.197554
2004-04-05 08:40:33 51°11.413 2°45.295 8.964549 3.653184 34.22941 27.163845
2004-04-05 08:40:38 51°11.406 2°45.265 8.965978 3.654027 34.235822 27.264973
2004-04-05 08:40:43 51°11.399 2°45.235 8.970124 3.653184 34.22941 27.399811
2004-04-05 08:40:47 51°11.393 2°45.212 8.971315 3.653606 34.233806 27.669486
2004-04-05 08:40:53 51°11.385 2°45.176 8.971315 3.653606 34.233806 27.669486
2004-04-05 08:40:57 51°11.379 2°45.153 8.97689 3.653395 34.232402 28.208836
2004-04-05 08:41:03 51°11.37 2°45.117 8.966264 3.653606 34.233806 28.377383
2004-04-05 08:41:07 51°11.365 2°45.093 8.966598 3.653395 34.228435 28.377383
2004-04-05 08:41:13 51°11.356 2°45.057 8.963262 3.653606 34.232219 28.411093
2004-04-05 08:41:18 51°11.349 2°45.028 8.962547 3.653079 34.221965 28.242546
2004-04-05 08:41:23 51°11.342 2°44.998 8.962547 3.653079 34.221965 28.242546
2004-04-05 08:41:29 51°11.333 2°44.963 8.97203 3.653711 34.230938 28.175127
2004-04-05 08:41:33 51°11.328 2°44.939 8.964215 3.654027 34.235822 28.242546
2004-04-05 08:41:38 51°11.32 2°44.91 8.962786 3.654133 34.239301 28.107708
2004-04-05 08:41:43 51°11.313 2°44.88 8.95597 3.654027 34.23979 28.276255
2004-04-05 08:41:49 51°11.305 2°44.845 8.952682 3.653711 34.232525 28.54593
2004-04-05 08:41:53 51°11.299 2°44.821 8.952682 3.653711 34.232525 28.54593
2004-04-05 08:41:58 51°11.292 2°44.792 8.954159 3.654027 34.237409 28.276255
2004-04-05 08:42:03 51°11.285 2°44.762 8.950871 3.654238 34.242782 28.377383
2004-04-05 08:42:07 51°11.279 2°44.739 8.946533 3.654449 34.248156 28.343674
2004-04-05 08:42:13 51°11.27 2°44.703 8.95292 3.654343 34.249439 28.242546
2004-04-05 08:42:18 51°11.263 2°44.674 8.953063 3.653922 34.24663 28.343674
2004-04-05 08:42:23 51°11.256 2°44.645 8.953063 3.653922 34.24663 28.343674
2004-04-05 08:42:29 51°11.248 2°44.609 8.945818 3.654238 34.252311 28.377383
2004-04-05 08:42:34 51°11.24 2°44.58 8.944626 3.654344 34.254999 28.175127
2004-04-05 08:42:38 51°11.235 2°44.557 8.94863 3.6535 34.246203 27.602067
2004-04-05 08:42:43 51°11.227 2°44.527 8.943625 3.653606 34.246509 28.309965
2004-04-05 08:42:49 51°11.219 2°44.492 8.940002 3.653817 34.25109 27.43352
2004-04-05 08:42:53 51°11.213 2°44.469 8.940002 3.653817 34.25109 27.43352
2004-04-05 08:42:58 51°11.206 2°44.439 8.949298 3.653606 34.25048 27.029007
2004-04-05 08:43:03 51°11.199 2°44.41 8.937142 3.653395 34.247487 27.231264
2004-04-05 08:43:09 51°11.19 2°44.375 8.928369 3.65329 34.250359 27.332392
2004-04-05 08:43:13 51°11.185 2°44.351 8.929418 3.653395 34.256227 26.961589
2004-04-05 08:43:18 51°11.178 2°44.322 8.931563 3.653395 34.253843 26.995298
2004-04-05 08:43:23 51°11.171 2°44.292 8.931563 3.653395 34.253843 26.995298
2004-04-05 08:43:29 51°11.162 2°44.256 8.931039 3.652974 34.253417 26.86046
2004-04-05 08:43:33 51°11.157 2°44.233 8.934805 3.652868 34.257086 26.354819
2004-04-05 08:43:38 51°11.15 2°44.204 8.925794 3.652658 34.258066 26.557076
2004-04-05 08:43:43 51°11.143 2°44.174 8.926557 3.652447 34.253481 26.152563
2004-04-05 08:43:47 51°11.137 2°44.151 8.938667 3.652236 34.245718 26.489657
2004-04-05 08:43:53 51°11.128 2°44.115 8.938667 3.652236 34.245718 26.489657
2004-04-05 08:43:58 51°11.121 2°44.085 8.936999 3.651815 34.245292 26.455947
2004-04-05 08:44:03 51°11.114 2°44.056 8.937094 3.652131 34.250976 26.658204
2004-04-05 08:44:09 51°11.106 2°44.021 8.93533 3.652552 34.257761 27.096426
2004-04-05 08:44:13 51°11.1 2°43.997 8.938286 3.652236 34.252871 27.163845
2004-04-05 08:44:19 51°11.092 2°43.962 8.948344 3.65192 34.246392 27.43352
2004-04-05 08:44:23 51°11.087 2°43.938 8.948344 3.65192 34.246392 27.43352
2004-04-05 08:44:29 51°11.079 2°43.903 8.936188 3.652552 34.251402 27.669486
2004-04-05 08:44:33 51°11.073 2°43.88 8.938286 3.652658 34.253296 27.534648
2004-04-05 08:44:39 51°11.064 2°43.844 8.938715 3.652658 34.248528 27.669486
2004-04-05 08:44:43 51°11.059 2°43.821 8.94005 3.652131 34.240646 27.534648
2004-04-05 08:44:47 51°11.053 2°43.797 8.941337 3.653184 34.254822 27.804324
2004-04-05 08:44:53 51°11.044 2°43.762 8.941337 3.653184 34.254822 27.804324
2004-04-05 08:44:58 51°11.037 2°43.733 8.937428 3.653079 34.255311 28.040289
2004-04-05 08:45:03 51°11.03 2°43.703 8.944864 3.652763 34.248833 27.972871
2004-04-05 08:45:09 51°11.022 2°43.668 8.948678 3.652868 34.251522 28.073999
2004-04-05 08:45:13 51°11.016 2°43.644 8.943244 3.652868 34.251522 28.478512
2004-04-05 08:45:18 51°11.009 2°43.615 8.942052 3.652447 34.247123 28.175127
2004-04-05 08:45:23 51°11.002 2°43.586 8.942052 3.652447 34.247123 28.175127
2004-04-05 08:45:29 51°10.994 2°43.55 8.944149 3.652974 34.250238 28.242546
2004-04-05 08:45:33 51°10.988 2°43.527 8.945103 3.652447 34.241562 28.242546
2004-04-05 08:45:37 51°10.983 2°43.503 8.945246 3.653606 34.254453 28.309965
2004-04-05 08:45:43 51°10.974 2°43.468 8.944006 3.65329 34.253537 28.276255
2004-04-05 08:45:49 51°10.966 2°43.433 8.937809 3.653079 34.249749 28.208836
2004-04-05 08:45:53 51°10.96 2°43.41 8.937809 3.653079 34.249749 28.208836
2004-04-05 08:45:59 51°10.951 2°43.375 8.944674 3.653079 34.248954 28.309965
2004-04-05 08:46:03 51°10.946 2°43.352 8.946104 3.652552 34.245045 27.804324
2004-04-05 08:46:09 51°10.937 2°43.317 8.949917 3.653606 34.255247 27.703195
2004-04-05 08:46:13 51°10.932 2°43.293 8.945341 3.653395 34.253843 27.332392
2004-04-05 08:46:18 51°10.925 2°43.264 8.948106 3.653184 34.24926 27.500939
2004-04-05 08:46:23 51°10.918 2°43.235 8.948106 3.653184 34.24926 27.500939
2004-04-05 08:46:29 51°10.909 2°43.2 8.946009 3.65329 34.24877 27.669486
2004-04-05 08:46:33 51°10.904 2°43.176 8.949059 3.653079 34.244983 28.242546
2004-04-05 08:46:37 51°10.898 2°43.153 8.953635 3.653395 34.250664 28.377383
2004-04-05 08:46:43 51°10.89 2°43.117 8.951061 3.653922 34.256957 28.242546
2004-04-05 08:46:49 51°10.882 2°43.082 8.949202 3.653606 34.252069 28.276255
2004-04-05 08:46:53 51°10.876 2°43.059 8.949202 3.653606 34.252069 28.276255
2004-04-05 08:46:58 51°10.869 2°43.029 8.951156 3.653606 34.251275 28.714477
2004-04-05 08:47:03 51°10.862 2°43 8.950489 3.653184 34.244494 28.444802
2004-04-05 08:47:09 51°10.854 2°42.965 8.949107 3.653606 34.248891 28.714477
2004-04-05 08:47:13 51°10.848 2°42.941 8.951538 3.653395 34.246693 28.916734
2004-04-05 08:47:18 51°10.841 2°42.912 8.952634 3.653395 34.247487 28.950443
2004-04-05 08:47:23 51°10.834 2°42.883 8.952634 3.653395 34.247487 28.950443
2004-04-05 08:47:29 51°10.826 2°42.848 8.95211 3.653817 34.250296 28.849315
2004-04-05 08:47:33 51°10.821 2°42.824 8.949584 3.653817 34.25109 28.815606
2004-04-05 08:47:37 51°10.815 2°42.801 8.944054 3.653711 34.249991 28.781896
2004-04-05 08:47:43 51°10.807 2°42.766 8.946247 3.652763 34.240096 28.613349
2004-04-05 08:47:49 51°10.799 2°42.731 8.945913 3.653817 34.252679 29.186409
2004-04-05 08:47:53 51°10.793 2°42.708 8.945913 3.653817 34.252679 29.186409
2004-04-05 08:47:58 51°10.786 2°42.678 8.954779 3.653501 34.251764 28.680768
2004-04-05 08:48:03 51°10.779 2°42.649 8.947915 3.654133 34.259951 28.276255
2004-04-05 08:48:09 51°10.771 2°42.614 8.953111 3.654238 34.261051 28.175127
2004-04-05 08:48:13 51°10.765 2°42.591 8.953206 3.654133 34.257567 28.141418
2004-04-05 08:48:18 51°10.758 2°42.562 8.955303 3.654133 34.254389 28.00658
2004-04-05 08:48:23 51°10.751 2°42.532 8.955303 3.654133 34.254389 28.00658
2004-04-05 08:48:27 51°10.746 2°42.509 8.953015 3.653817 34.251885 27.838033
2004-04-05 08:48:33 51°10.738 2°42.474 8.955065 3.654344 34.256588 27.264973
2004-04-05 08:48:37 51°10.732 2°42.45 8.951252 3.654133 34.2528 27.703195
2004-04-05 08:48:43 51°10.724 2°42.416 8.956209 3.653922 34.249013 27.669486
2004-04-05 08:48:49 51°10.715 2°42.381 8.956971 3.653606 34.246509 27.568358
2004-04-05 08:48:53 51°10.71 2°42.358 8.956971 3.653606 34.246509 27.568358
2004-04-05 08:48:59 51°10.702 2°42.323 8.956256 3.654027 34.250906 27.534648
2004-04-05 08:49:03 51°10.697 2°42.3 8.952634 3.654554 34.257198 27.736905
2004-04-05 08:49:09 51°10.688 2°42.265 8.954731 3.654133 34.251211 28.309965
2004-04-05 08:49:13 51°10.683 2°42.242 8.951252 3.654238 34.252311 28.276255
2004-04-05 08:49:18 51°10.676 2°42.212 8.94987 3.654449 34.255304 27.972871
2004-04-05 08:49:23 51°10.669 2°42.183 8.94987 3.654449 34.255304 27.972871
2004-04-05 08:49:29 51°10.661 2°42.148 8.947057 3.654027 34.253289 28.141418
2004-04-05 08:49:33 51°10.656 2°42.125 8.953063 3.654554 34.257993 27.534648
2004-04-05 08:49:37 51°10.65 2°42.101 8.95068 3.654554 34.257993 27.669486
2004-04-05 08:49:43 51°10.642 2°42.066 8.952777 3.65466 34.260681 27.500939
2004-04-05 08:49:49 51°10.634 2°42.031 8.951538 3.654449 34.260071 27.635777
2004-04-05 08:49:53 51°10.628 2°42.008 8.951538 3.654449 34.260071 27.635777
2004-04-05 08:49:59 51°10.62 2°41.973 8.954636 3.654238 34.257078 27.298683
2004-04-05 08:50:03 51°10.614 2°41.95 8.951919 3.654133 34.255183 27.635777
2004-04-05 08:50:09 51°10.606 2°41.915 8.952968 3.654554 34.263555 28.377383
2004-04-05 08:50:13 51°10.601 2°41.892 8.960546 3.654238 34.256283 27.838033
2004-04-05 08:50:18 51°10.594 2°41.863 8.960069 3.653922 34.254573 28.242546
2004-04-05 08:50:23 51°10.587 2°41.834 8.960069 3.653922 34.254573 28.242546
2004-04-05 08:50:29 51°10.579 2°41.799 8.962071 3.654449 34.256893 28.343674
2004-04-05 08:50:33 51°10.574 2°41.776 8.963834 3.654344 34.254999 28.512221
2004-04-05 08:50:37 51°10.568 2°41.753 8.966312 3.654449 34.25451 28.512221
2004-04-05 08:50:43 51°10.56 2°41.718 8.972078 3.655924 34.265134 28.883024
2004-04-05 08:50:49 51°10.552 2°41.685 8.970744 3.654976 34.254446 28.815606
2004-04-05 08:50:53 51°10.546 2°41.661 8.970744 3.654976 34.254446 28.815606
2004-04-05 08:50:58 51°10.54 2°41.632 8.974413 3.65487 34.251759 28.680768
2004-04-05 08:51:03 51°10.533 2°41.604 8.972459 3.655292 34.252979 29.11899
2004-04-05 08:51:09 51°10.525 2°41.569 8.975127 3.654765 34.242721 29.253828
2004-04-05 08:51:13 51°10.52 2°41.546 8.972364 3.655081 34.245224 29.422375
2004-04-05 08:51:18 51°10.513 2°41.517 8.977319 3.656135 34.257007 29.489794
2004-04-05 08:51:23 51°10.506 2°41.488 8.977319 3.656135 34.257007 29.489794
2004-04-05 08:51:29 51°10.498 2°41.453 8.974984 3.655502 34.250413 29.321247
2004-04-05 08:51:33 51°10.493 2°41.43 8.975556 3.655292 34.246628 29.557212
2004-04-05 08:51:37 51°10.487 2°41.407 8.98275 3.655713 34.251817 29.220118
2004-04-05 08:51:43 51°10.479 2°41.372 8.972173 3.655502 34.247238 29.287537
2004-04-05 08:51:49 51°10.471 2°41.337 8.979749 3.655819 34.250535 29.354956
2004-04-05 08:51:54 51°10.464 2°41.309 8.979749 3.655819 34.250535 29.354956
2004-04-05 08:51:59 51°10.458 2°41.28 8.983656 3.655819 34.248947 29.321247
2004-04-05 08:52:03 51°10.452 2°41.256 8.979844 3.655819 34.24736 29.11899
2004-04-05 08:52:08 51°10.446 2°41.227 8.984608 3.65624 34.253343 29.1527
2004-04-05 08:52:13 51°10.439 2°41.199 8.985037 3.656451 34.254746 29.422375
2004-04-05 08:52:18 51°10.432 2°41.17 8.987848 3.656345 34.252854 29.69205
2004-04-05 08:52:23 51°10.425 2°41.141 8.987848 3.656345 34.252854 29.69205
2004-04-05 08:52:29 51°10.417 2°41.106 8.991992 3.656556 34.254258 30.062853
2004-04-05 08:52:33 51°10.412 2°41.083 8.993135 3.656767 34.254868 30.163982
2004-04-05 08:52:39 51°10.404 2°41.049 8.99766 3.656556 34.249496 30.501076
2004-04-05 08:52:43 51°10.398 2°41.025 9.000232 3.656767 34.249312 30.770751
2004-04-05 08:52:47 51°10.393 2°41.002 8.999089 3.657188 34.251326 30.737042
2004-04-05 08:52:53 51°10.385 2°40.968 8.999089 3.657188 34.251326 30.737042
2004-04-05 08:52:57 51°10.38 2°40.944 9.000899 3.657188 34.248946 30.669623
2004-04-05 08:53:03 51°10.372 2°40.91 9.006995 3.657188 34.244979 30.871879
2004-04-05 08:53:09 51°10.364 2°40.875 9.00309 3.657294 34.244491 30.534785
2004-04-05 08:53:13 51°10.358 2°40.852 9.00228 3.658242 34.252789 31.208973
2004-04-05 08:53:18 51°10.351 2°40.824 9.007614 3.657715 34.245712 31.849452
2004-04-05 08:53:23 51°10.345 2°40.795 9.007614 3.657715 34.245712 31.849452
2004-04-05 08:53:29 51°10.337 2°40.76 9.007186 3.65761 34.243028 31.815742
2004-04-05 08:53:33 51°10.332 2°40.737 9.009043 3.657926 34.247115 32.017999
2004-04-05 08:53:38 51°10.325 2°40.708 9.006424 3.658031 34.24742 31.849452
2004-04-05 08:53:43 51°10.319 2°40.679 9.012043 3.65782 34.241259 31.916871
2004-04-05 08:53:49 51°10.31 2°40.645 9.015805 3.658031 34.24187 31.916871
2004-04-05 08:53:53 51°10.305 2°40.622 9.015805 3.658031 34.24187 31.916871
2004-04-05 08:53:58 51°10.298 2°40.593 9.020519 3.658137 34.243761 31.95058
2004-04-05 08:54:03 51°10.291 2°40.564 9.018281 3.658453 34.246262 31.748324
2004-04-05 08:54:09 51°10.282 2°40.53 9.019567 3.658453 34.244676 32.119127
2004-04-05 08:54:13 51°10.277 2°40.507 9.019376 3.658453 34.242298 32.287674
2004-04-05 08:54:18 51°10.269 2°40.479 9.022043 3.658453 34.237542 31.95058
2004-04-05 08:54:23 51°10.261 2°40.451 9.022043 3.658453 34.237542 31.95058
2004-04-05 08:54:29 51°10.251 2°40.417 9.024661 3.658663 34.239738 31.849452
2004-04-05 08:54:33 51°10.245 2°40.395 9.029184 3.65919 34.242848 31.782033
2004-04-05 08:54:38 51°10.238 2°40.367 9.024756 3.659085 34.241751 31.175264
2004-04-05 08:54:43 51°10.23 2°40.338 9.027518 3.659085 34.240958 30.433657
2004-04-05 08:54:49 51°10.221 2°40.304 9.028565 3.65919 34.239679 30.433657
2004-04-05 08:54:53 51°10.215 2°40.282 9.028565 3.65919 34.239679 30.433657
2004-04-05 08:54:57 51°10.209 2°40.259 9.029374 3.659085 34.236204 29.995435
2004-04-05 08:55:03 51°10.2 2°40.225 9.031231 3.659506 34.239802 29.354956
2004-04-05 08:55:09 51°10.191 2°40.191 9.028613 3.659295 34.236815 29.489794
2004-04-05 08:55:13 51°10.185 2°40.169 9.028041 3.659401 34.23712 29.11899
2004-04-05 08:55:19 51°10.176 2°40.135 9.029136 3.659295 34.234438 28.849315
2004-04-05 08:55:23 51°10.17 2°40.112 9.029136 3.659295 34.234438 28.849315
2004-04-05 08:55:29 51°10.161 2°40.078 9.02966 3.65919 34.232549 29.354956
2004-04-05 08:55:33 51°10.155 2°40.055 9.029327 3.659612 34.238522 28.57964
2004-04-05 08:55:39 51°10.146 2°40.021 9.031898 3.659822 34.242302 28.57964
2004-04-05 08:55:43 51°10.139 2°39.998 9.028994 3.659611 34.232978 28.613349
2004-04-05 08:55:49 51°10.131 2°39.964 9.032326 3.659612 34.236938 28.647059
2004-04-05 08:55:53 51°10.124 2°39.941 9.032326 3.659612 34.236938 28.647059
2004-04-05 08:55:59 51°10.115 2°39.907 9.033611 3.659822 34.239133 28.54593
2004-04-05 08:56:03 51°10.109 2°39.884 9.036087 3.659822 34.239133 29.388665
2004-04-05 08:56:07 51°10.103 2°39.861 9.034325 3.66056 34.246815 29.961725
2004-04-05 08:56:13 51°10.094 2°39.827 9.041466 3.659928 34.24023 29.624631
2004-04-05 08:56:18 51°10.086 2°39.798 9.0398 3.659928 34.238646 29.624631
2004-04-05 08:56:23 51°10.079 2°39.77 9.0398 3.659928 34.238646 29.624631
2004-04-05 08:56:29 51°10.07 2°39.736 9.04018 3.659928 34.237062 30.568494
2004-04-05 08:56:33 51°10.064 2°39.713 9.043703 3.660138 34.239256 30.669623
2004-04-05 08:56:39 51°10.055 2°39.679 9.047082 3.660455 34.241756 30.939298
2004-04-05 08:56:43 51°10.049 2°39.656 9.046654 3.659928 34.234686 31.208973
2004-04-05 08:56:49 51°10.04 2°39.622 9.050461 3.660244 34.23481 31.444939
2004-04-05 08:56:53 51°10.033 2°39.599 9.050461 3.660244 34.23481 31.444939
2004-04-05 08:56:58 51°10.026 2°39.571 9.05284 3.660349 34.235115 31.478648
2004-04-05 08:57:03 51°10.018 2°39.542 9.050984 3.660771 34.237127 31.444939
2004-04-05 08:57:07 51°10.012 2°39.52 9.053745 3.66056 34.232558 31.613486
2004-04-05 08:57:13 51°10.003 2°39.486 9.058361 3.66056 34.230183 31.613486
2004-04-05 08:57:18 51°9.995 2°39.458 9.057504 3.66056 34.2286 32.52364
2004-04-05 08:57:23 51°9.988 2°39.43 9.057504 3.66056 34.2286 32.52364
2004-04-05 08:57:28 51°9.98 2°39.402 9.05779 3.660876 34.230308 32.152836
2004-04-05 08:57:34 51°9.971 2°39.368 9.057742 3.66056 34.227809 32.119127
2004-04-05 08:57:39 51°9.963 2°39.34 9.064071 3.660981 34.22903 32.321383
2004-04-05 08:57:43 51°9.957 2°39.318 9.061263 3.661087 34.229336 32.321383
2004-04-05 08:57:49 51°9.948 2°39.284 9.058361 3.661087 34.226962 32.220255
2004-04-05 08:57:53 51°9.942 2°39.261 9.058361 3.661087 34.226962 32.220255
2004-04-05 08:57:58 51°9.934 2°39.233 9.057599 3.661192 34.22885 32.725896
2004-04-05 08:58:03 51°9.927 2°39.205 9.054887 3.661087 34.22617 32.321383
2004-04-05 08:58:09 51°9.918 2°39.171 9.055077 3.661087 34.22617 32.422512
2004-04-05 08:58:13 51°9.912 2°39.148 9.054887 3.661087 34.224588 32.692187
2004-04-05 08:58:17 51°9.906 2°39.125 9.059645 3.661192 34.22885 32.253965
2004-04-05 08:58:23 51°9.897 2°39.091 9.059645 3.661192 34.22885 32.253965
2004-04-05 08:58:29 51°9.888 2°39.057 9.053887 3.661087 34.230127 32.591059
2004-04-05 08:58:33 51°9.882 2°39.034 9.063405 3.660876 34.227142 32.085418
2004-04-05 08:58:39 51°9.872 2°39 9.054744 3.660665 34.224949 31.883161
2004-04-05 08:58:43 51°9.866 2°38.977 9.052793 3.66056 34.223061 32.321383
2004-04-05 08:58:49 51°9.857 2°38.944 9.056172 3.660665 34.224949 31.680905
2004-04-05 08:58:53 51°9.851 2°38.921 9.056172 3.660665 34.224949 31.680905
2004-04-05 08:58:58 51°9.844 2°38.892 9.054316 3.659822 34.214594 31.478648
2004-04-05 08:59:03 51°9.837 2°38.864 9.047748 3.66056 34.223852 30.770751
2004-04-05 08:59:09 51°9.827 2°38.83 9.049652 3.660454 34.223547 30.770751
2004-04-05 08:59:13 51°9.822 2°38.807 9.052031 3.660033 34.21916 30.80446
2004-04-05 08:59:18 51°9.814 2°38.779 9.049414 3.66056 34.227018 30.973007
2004-04-05 08:59:23 51°9.807 2°38.751 9.049414 3.66056 34.227018 30.973007
2004-04-05 08:59:29 51°9.798 2°38.717 9.049747 3.660138 34.223422 30.905589
2004-04-05 08:59:33 51°9.791 2°38.694 9.053269 3.659927 34.221228 31.444939
2004-04-05 08:59:38 51°9.784 2°38.666 9.049033 3.660033 34.222325 31.37752
2004-04-05 08:59:43 51°9.776 2°38.638 9.046416 3.660138 34.224213 30.80446
2004-04-05 08:59:49 51°9.768 2°38.604 9.046558 3.659927 34.22202 31.006717
2004-04-05 08:59:53 51°9.762 2°38.581 9.046558 3.659927 34.22202 31.006717
2004-04-05 08:59:58 51°9.754 2°38.552 9.044845 3.659295 34.214648 30.737042
2004-04-05 09:00:03 51°9.747 2°38.524 9.045559 3.660349 34.228781 31.310101
2004-04-05 09:00:08 51°9.739 2°38.496 9.048319 3.659401 34.217327 31.478648
2004-04-05 09:00:13 51°9.732 2°38.467 9.04513 3.659611 34.220312 31.276392
2004-04-05 09:00:18 51°9.724 2°38.439 9.045559 3.659295 34.219395 31.748324
2004-04-05 09:00:23 51°9.717 2°38.411 9.045559 3.659295 34.219395 31.748324
2004-04-05 09:00:29 51°9.708 2°38.376 9.051127 3.659717 34.222991 31.41123
2004-04-05 09:00:33 51°9.702 2°38.354 9.042989 3.65919 34.216716 31.647195
2004-04-05 09:00:38 51°9.694 2°38.325 9.038514 3.659084 34.217202 31.512358
2004-04-05 09:00:43 51°9.686 2°38.296 9.043369 3.659295 34.219395 30.83817
2004-04-05 09:00:47 51°9.68 2°38.274 9.043274 3.659295 34.220187 31.074136
2004-04-05 09:00:53 51°9.671 2°38.24 9.043274 3.659295 34.220187 31.074136
2004-04-05 09:00:58 51°9.664 2°38.211 9.039181 3.659084 34.218784 30.534785
2004-04-05 09:01:03 51°9.656 2°38.183 9.037467 3.659085 34.221159 30.467366
2004-04-05 09:01:09 51°9.647 2°38.148 9.036944 3.658874 34.218173 30.467366
2004-04-05 09:01:13 51°9.641 2°38.126 9.037372 3.658768 34.214702 30.602204
2004-04-05 09:01:17 51°9.635 2°38.103 9.033707 3.658768 34.217076 30.26511
2004-04-05 09:01:23 51°9.626 2°38.068 9.033707 3.658768 34.217076 30.26511
2004-04-05 09:01:29 51°9.617 2°38.034 9.0378 3.658874 34.220548 30.534785
2004-04-05 09:01:33 51°9.611 2°38.011 9.038229 3.658663 34.219937 30.130272
2004-04-05 09:01:38 51°9.604 2°37.983 9.037705 3.658768 34.222617 30.163982
2004-04-05 09:01:43 51°9.596 2°37.954 9.03761 3.658558 34.220423 30.568494
2004-04-05 09:01:48 51°9.589 2°37.925 9.035135 3.658031 34.214146 30.703332
2004-04-05 09:01:53 51°9.581 2°37.897 9.035135 3.658031 34.214146 30.703332
2004-04-05 09:01:58 51°9.574 2°37.868 9.034706 3.658136 34.215243 30.332529
2004-04-05 09:02:03 51°9.566 2°37.84 9.035135 3.658347 34.216645 30.433657
2004-04-05 09:02:07 51°9.56 2°37.817 9.035849 3.658242 34.217131 30.635913
2004-04-05 09:02:13 51°9.552 2°37.783 9.035468 3.658031 34.215729 31.175264
2004-04-05 09:02:19 51°9.542 2°37.749 9.038657 3.65782 34.214326 30.905589
2004-04-05 09:02:23 51°9.536 2°37.726 9.038657 3.65782 34.214326 30.905589
2004-04-05 09:02:27 51°9.53 2°37.703 9.036896 3.657715 34.210854 31.310101
2004-04-05 09:02:33 51°9.521 2°37.669 9.039514 3.657715 34.212437 31.37752
2004-04-05 09:02:38 51°9.513 2°37.641 9.039942 3.657609 34.210549 31.343811
2004-04-05 09:02:43 51°9.506 2°37.612 9.036182 3.657715 34.210854 31.37752
2004-04-05 09:02:47 51°9.5 2°37.589 9.037515 3.657504 34.20866 31.006717
2004-04-05 09:02:53 51°9.491 2°37.556 9.037515 3.657504 34.20866 31.006717
2004-04-05 09:02:58 51°9.483 2°37.527 9.036706 3.657715 34.210854 30.871879
2004-04-05 09:03:03 51°9.476 2°37.499 9.033802 3.657504 34.207078 30.737042
2004-04-05 09:03:09 51°9.467 2°37.465 9.03761 3.65782 34.21116 31.444939
2004-04-05 09:03:13 51°9.461 2°37.442 9.040466 3.657609 34.210549 31.782033
2004-04-05 09:03:17 51°9.455 2°37.42 9.042703 3.657609 34.210549 31.815742
2004-04-05 09:03:23 51°9.446 2°37.386 9.042703 3.657609 34.210549 31.815742
2004-04-05 09:03:29 51°9.436 2°37.352 9.04099 3.661614 34.254619 31.883161
2004-04-05 09:03:33 51°9.43 2°37.329 9.038229 3.657293 34.206466 32.355093
2004-04-05 09:03:38 51°9.423 2°37.301 9.047082 3.657398 34.205981 31.883161
2004-04-05 09:03:43 51°9.415 2°37.273 9.038181 3.65782 34.209577 31.883161
2004-04-05 09:03:49 51°9.406 2°37.239 9.036372 3.657609 34.207384 31.815742
2004-04-05 09:03:53 51°9.4 2°37.217 9.036372 3.657609 34.207384 31.815742
2004-04-05 09:03:57 51°9.394 2°37.194 9.035373 3.65782 34.210369 31.815742
2004-04-05 09:04:03 51°9.385 2°37.16 9.0388 3.657504 34.204704 31.916871
2004-04-05 09:04:09 51°9.376 2°37.126 9.03623 3.657504 34.204704 31.883161
2004-04-05 09:04:13 51°9.37 2°37.103 9.037086 3.65782 34.209577 32.152836
2004-04-05 09:04:17 51°9.364 2°37.08 9.039609 3.657925 34.212257 32.52364
2004-04-05 09:04:23 51°9.355 2°37.046 9.039609 3.657925 34.212257 32.52364
2004-04-05 09:04:29 51°9.346 2°37.012 9.039133 3.657609 34.209757 32.388802
2004-04-05 09:04:34 51°9.339 2°36.983 9.043179 3.657504 34.20866 32.253965
2004-04-05 09:04:39 51°9.331 2°36.955 9.045226 3.658347 34.215062 32.52364
2004-04-05 09:04:43 51°9.325 2°36.932 9.043988 3.658031 34.212563 32.051708
2004-04-05 09:04:49 51°9.316 2°36.898 9.044559 3.65782 34.207995 32.52364
2004-04-05 09:04:53 51°9.31 2°36.875 9.044559 3.65782 34.207995 32.52364
2004-04-05 09:04:58 51°9.302 2°36.847 9.043798 3.658136 34.211286 32.48993
2004-04-05 09:05:03 51°9.294 2°36.819 9.044845 3.658347 34.211106 32.119127
2004-04-05 09:05:09 51°9.284 2°36.785 9.044655 3.658347 34.211897 32.152836
2004-04-05 09:05:13 51°9.277 2°36.763 9.046844 3.658558 34.2133 31.782033
2004-04-05 09:05:18 51°9.268 2°36.735 9.046987 3.658452 34.211412 31.647195
2004-04-05 09:05:23 51°9.26 2°36.708 9.046987 3.658452 34.211412 31.647195
2004-04-05 09:05:27 51°9.252 2°36.686 9.049128 3.658663 34.214397 31.040426
2004-04-05 09:05:33 51°9.242 2°36.653 9.044797 3.658663 34.212814 30.939298
2004-04-05 09:05:39 51°9.231 2°36.62 9.04613 3.659084 34.215619 31.208973
2004-04-05 09:05:43 51°9.224 2°36.598 9.046511 3.658663 34.20965 31.141554
2004-04-05 09:05:49 51°9.213 2°36.565 9.052317 3.658663 34.210441 31.512358
2004-04-05 09:05:53 51°9.206 2°36.543 9.052317 3.658663 34.210441 31.512358
2004-04-05 09:05:59 51°9.196 2°36.51 9.045273 3.658979 34.215313 31.310101
2004-04-05 09:06:03 51°9.189 2°36.488 9.048319 3.659084 34.21641 30.871879
2004-04-05 09:06:09 51°9.178 2°36.455 9.049319 3.659401 34.21891 31.242683
2004-04-05 09:06:13 51°9.171 2°36.433 9.046654 3.658874 34.211843 30.80446
2004-04-05 09:06:18 51°9.162 2°36.406 9.049033 3.659506 34.219215 30.433657
2004-04-05 09:06:23 51°9.154 2°36.378 9.049033 3.659506 34.219215 30.433657
2004-04-05 09:06:29 51°9.143 2°36.345 9.047986 3.659611 34.217938 30.534785
2004-04-05 09:06:33 51°9.136 2°36.323 9.046225 3.659506 34.217633 30.163982
2004-04-05 09:06:37 51°9.129 2°36.301 9.049557 3.659401 34.217327 30.366238
2004-04-05 09:06:43 51°9.118 2°36.268 9.046844 3.659506 34.218424 29.928016
2004-04-05 09:06:49 51°9.108 2°36.235 9.047082 3.659401 34.218118 30.399947
2004-04-05 09:06:53 51°9.101 2°36.212 9.047082 3.659401 34.218118 30.399947
2004-04-05 09:06:58 51°9.092 2°36.185 9.047605 3.659822 34.221714 29.995435
2004-04-05 09:07:03 51°9.084 2°36.156 9.046939 3.659084 34.213246 30.2314
2004-04-05 09:07:09 51°9.074 2°36.123 9.054506 3.659927 34.221228 30.163982
2004-04-05 09:07:13 51°9.068 2°36.1 9.047843 3.659611 34.218729 30.332529
2004-04-05 09:07:18 51°9.06 2°36.072 9.04989 3.659717 34.219035 30.2314
2004-04-05 09:07:23 51°9.052 2°36.044 9.04989 3.659717 34.219035 30.2314
2004-04-05 09:07:29 51°9.042 2°36.009 9.049176 3.659927 34.22202 30.062853
2004-04-05 09:07:33 51°9.036 2°35.987 9.051556 3.659611 34.218729 30.433657
2004-04-05 09:07:38 51°9.028 2°35.958 9.043941 3.659611 34.218729 30.130272
2004-04-05 09:07:43 51°9.021 2°35.931 9.046416 3.659295 34.215439 30.703332
2004-04-05 09:07:48 51°9.013 2°35.903 9.041561 3.659401 34.218118 30.298819
2004-04-05 09:07:53 51°9.005 2°35.874 9.041561 3.659401 34.218118 30.298819
2004-04-05 09:07:58 51°8.997 2°35.846 9.041894 3.659506 34.217633 30.062853
2004-04-05 09:08:03 51°8.99 2°35.818 9.044083 3.659295 34.217021 30.163982
2004-04-05 09:08:07 51°8.983 2°35.795 9.04356 3.659401 34.21891 30.062853
2004-04-05 09:08:13 51°8.973 2°35.76 9.041942 3.658979 34.216896 30.399947
2004-04-05 09:08:18 51°8.966 2°35.732 9.041037 3.65919 34.21909 30.298819
2004-04-05 09:08:23 51°8.957 2°35.704 9.041037 3.65919 34.21909 30.298819
2004-04-05 09:08:29 51°8.948 2°35.67 9.042132 3.658979 34.218479 30.433657
2004-04-05 09:08:33 51°8.942 2°35.648 9.041513 3.65919 34.219881 30.534785
2004-04-05 09:08:38 51°8.934 2°35.619 9.044226 3.65919 34.220673 30.366238
2004-04-05 09:08:43 51°8.927 2°35.591 9.041894 3.659085 34.220367 30.26511
2004-04-05 09:08:47 51°8.921 2°35.569 9.037515 3.658768 34.217868 29.928016
2004-04-05 09:08:53 51°8.912 2°35.535 9.037515 3.658768 34.217868 29.928016
2004-04-05 09:08:57 51°8.906 2°35.513 9.036087 3.658979 34.218479 29.826888
2004-04-05 09:09:03 51°8.896 2°35.479 9.043845 3.658874 34.21659 29.860597
2004-04-05 09:09:09 51°8.887 2°35.445 9.03661 3.658663 34.214397 30.163982
2004-04-05 09:09:13 51°8.88 2°35.423 9.035896 3.658558 34.216465 30.029144
2004-04-05 09:09:18 51°8.872 2°35.395 9.038324 3.658347 34.215062 30.163982
2004-04-05 09:09:23 51°8.864 2°35.366 9.038324 3.658347 34.215062 30.163982
2004-04-05 09:09:29 51°8.855 2°35.332 9.042655 3.658452 34.216159 30.2314
2004-04-05 09:09:33 51°8.849 2°35.31 9.038752 3.658136 34.214451 29.995435
2004-04-05 09:09:38 51°8.841 2°35.281 9.038895 3.658031 34.211771 29.69205
2004-04-05 09:09:43 51°8.833 2°35.253 9.036896 3.657925 34.210674 29.725759
2004-04-05 09:09:49 51°8.823 2°35.219 9.042132 3.657925 34.212257 29.354956
2004-04-05 09:09:53 51°8.817 2°35.196 9.042132 3.657925 34.212257 29.354956
2004-04-05 09:09:58 51°8.809 2°35.168 9.03861 3.658031 34.211771 29.220118
2004-04-05 09:10:03 51°8.801 2°35.139 9.036039 3.658347 34.215062 28.916734
2004-04-05 09:10:08 51°8.793 2°35.111 9.036753 3.658031 34.21098 28.478512
2004-04-05 09:10:13 51°8.786 2°35.083 9.036468 3.658452 34.214577 28.411093
2004-04-05 09:10:18 51°8.777 2°35.054 9.036706 3.658242 34.213965 28.309965
2004-04-05 09:10:23 51°8.77 2°35.028 9.036706 3.658242 34.213965 28.309965
2004-04-05 09:10:27 51°8.764 2°35.007 9.04118 3.658242 34.214757 28.57964
2004-04-05 09:10:33 51°8.756 2°34.979 9.042703 3.658031 34.214146 28.478512
2004-04-05 09:10:37 51°8.752 2°34.962 9.046273 3.658136 34.21366 27.939161
2004-04-05 09:10:43 51°8.745 2°34.938 9.041656 3.658663 34.219145 28.175127
2004-04-05 09:10:49 51°8.74 2°34.916 9.046558 3.658136 34.210495 27.669486
2004-04-05 09:10:53 51°8.737 2°34.902 9.046558 3.658136 34.210495 27.669486
2004-04-05 09:10:58 51°8.734 2°34.885 9.044417 3.658663 34.213605 27.534648
2004-04-05 09:11:03 51°8.731 2°34.869 9.042132 3.658768 34.21312 27.163845
2004-04-05 09:11:09 51°8.728 2°34.852 9.044226 3.658768 34.214702 27.062717
2004-04-05 09:11:13 51°8.727 2°34.841 9.041942 3.658979 34.215313 26.927879
2004-04-05 09:11:19 51°8.725 2°34.826 9.040371 3.659295 34.219395 26.89417
2004-04-05 09:11:23 51°8.724 2°34.817 9.040371 3.659295 34.219395 26.89417
2004-04-05 09:11:29 51°8.723 2°34.804 9.041037 3.659717 34.224574 26.826751
2004-04-05 09:11:33 51°8.722 2°34.795 9.045273 3.659717 34.224574 27.096426
2004-04-05 09:11:38 51°8.721 2°34.785 9.040276 3.659401 34.222867 26.624494
2004-04-05 09:11:43 51°8.72 2°34.776 9.042655 3.659295 34.222561 26.32111
2004-04-05 09:11:48 51°8.719 2°34.767 9.041037 3.659717 34.226157 26.455947
2004-04-05 09:11:53 51°8.719 2°34.758 9.041037 3.659717 34.226157 26.455947
2004-04-05 09:11:58 51°8.718 2°34.75 9.040085 3.659085 34.220367 25.781759
2004-04-05 09:12:03 51°8.718 2°34.742 9.042513 3.659928 34.229143 25.680631
2004-04-05 09:12:07 51°8.718 2°34.737 9.042846 3.659822 34.227254 25.242409
2004-04-05 09:12:13 51°8.718 2°34.728 9.042132 3.659822 34.228046 25.343537
2004-04-05 09:12:18 51°8.717 2°34.721 9.04356 3.659717 34.228532 24.972734
2004-04-05 09:12:23 51°8.717 2°34.715 9.04356 3.659717 34.228532 24.972734
2004-04-05 09:12:29 51°8.717 2°34.708 9.040942 3.660138 34.232129 25.242409
2004-04-05 09:12:33 51°8.717 2°34.704 9.041085 3.660244 34.231642 25.2087
2004-04-05 09:12:38 51°8.718 2°34.698 9.042084 3.659928 34.229143 25.242409
2004-04-05 09:12:43 51°8.718 2°34.693 9.044797 3.659928 34.229143 25.309828
2004-04-05 09:12:47 51°8.718 2°34.689 9.044512 3.660244 34.233226 25.107571
2004-04-05 09:12:53 51°8.718 2°34.684 9.044512 3.660244 34.233226 25.107571
2004-04-05 09:12:58 51°8.719 2°34.68 9.042322 3.660349 34.235115 24.939024
2004-04-05 09:13:03 51°8.719 2°34.676 9.045702 3.660138 34.232129 25.107571
2004-04-05 09:13:09 51°8.719 2°34.671 9.04237 3.660244 34.232434 25.17499
2004-04-05 09:13:13 51°8.719 2°34.668 9.048557 3.659928 34.229143 25.040153
2004-04-05 09:13:19 51°8.719 2°34.664 9.049319 3.660244 34.231642 24.905315
2004-04-05 09:13:23 51°8.719 2°34.661 9.049319 3.660244 34.231642 24.905315
2004-04-05 09:13:28 51°8.719 2°34.657 9.052698 3.660138 34.230545 24.770477
2004-04-05 09:13:33 51°8.719 2°34.654 9.050746 3.66056 34.234142 24.129999
2004-04-05 09:13:38 51°8.718 2°34.651 9.051175 3.660876 34.235849 24.06258
2004-04-05 09:13:43 51°8.718 2°34.647 9.050509 3.661087 34.236459 24.028871
2004-04-05 09:13:49 51°8.718 2°34.643 9.05284 3.661297 34.236278 24.534512
2004-04-05 09:13:53 51°8.717 2°34.641 9.05284 3.661297 34.236278 24.534512
2004-04-05 09:13:58 51°8.716 2°34.637 9.052174 3.661192 34.235181 25.107571
2004-04-05 09:14:03 51°8.715 2°34.634 9.047891 3.661297 34.236278 25.343537
2004-04-05 09:14:08 51°8.713 2°34.631 9.046939 3.661297 34.235487 25.343537
2004-04-05 09:14:13 51°8.712 2°34.628 9.047748 3.661192 34.23439 25.74805
2004-04-05 09:14:18 51°8.71 2°34.625 9.051603 3.661087 34.234085 25.882888
2004-04-05 09:14:23 51°8.708 2°34.622 9.051603 3.661087 34.234085 25.882888
2004-04-05 09:14:29 51°8.705 2°34.618 9.049319 3.661403 34.236583 26.590785
2004-04-05 09:14:33 51°8.703 2°34.616 9.045273 3.661087 34.234876 26.590785
2004-04-05 09:14:38 51°8.7 2°34.614 9.045083 3.661297 34.237862 26.422238
2004-04-05 09:14:43 51°8.696 2°34.611 9.047272 3.661297 34.236278 26.793042
2004-04-05 09:14:48 51°8.693 2°34.608 9.046844 3.661297 34.239445 26.927879
2004-04-05 09:14:53 51°8.689 2°34.606 9.046844 3.661297 34.239445 26.927879
2004-04-05 09:14:58 51°8.685 2°34.603 9.047701 3.660981 34.236154 26.927879
2004-04-05 09:15:03 51°8.681 2°34.6 9.046273 3.660771 34.234752 27.029007
2004-04-05 09:15:07 51°8.678 2°34.598 9.044417 3.661297 34.240237 27.43352
2004-04-05 09:15:13 51°8.673 2°34.593 9.046844 3.661403 34.241334 27.534648
2004-04-05 09:15:18 51°8.668 2°34.59 9.049557 3.661297 34.239445 27.264973
2004-04-05 09:15:23 51°8.664 2°34.586 9.049557 3.661297 34.239445 27.264973
2004-04-05 09:15:29 51°8.658 2°34.581 9.046082 3.661297 34.240237 27.46723
2004-04-05 09:15:33 51°8.655 2°34.578 9.04513 3.661403 34.240542 27.669486
2004-04-05 09:15:38 51°8.65 2°34.574 9.046082 3.660981 34.236154 27.366101
2004-04-05 09:15:43 51°8.646 2°34.569 9.049604 3.660981 34.235363 27.197554
2004-04-05 09:15:48 51°8.642 2°34.565 9.046273 3.661508 34.241639 26.691913
2004-04-05 09:15:53 51°8.637 2°34.56 9.046273 3.661508 34.241639 26.691913
2004-04-05 09:15:58 51°8.633 2°34.555 9.048748 3.661297 34.238653 25.882888
2004-04-05 09:16:03 51°8.629 2°34.55 9.049462 3.661297 34.240237 25.714341
2004-04-05 09:16:09 51°8.624 2°34.543 9.04613 3.660876 34.234266 25.579503
2004-04-05 09:16:13 51°8.621 2°34.54 9.044607 3.661297 34.239445 25.781759
2004-04-05 09:16:18 51°8.617 2°34.534 9.045797 3.661297 34.238653 25.512084
2004-04-05 09:16:23 51°8.613 2°34.529 9.045797 3.661297 34.238653 25.512084
2004-04-05 09:16:27 51°8.61 2°34.524 9.045844 3.661192 34.237556 25.410956
2004-04-05 09:16:33 51°8.605 2°34.516 9.045559 3.661192 34.237556 25.444665
2004-04-05 09:16:38 51°8.602 2°34.51 9.04989 3.661087 34.238043 25.107571
2004-04-05 09:16:43 51°8.598 2°34.503 9.044274 3.661087 34.237251 25.006443
2004-04-05 09:16:49 51°8.594 2°34.495 9.042132 3.661403 34.241334 25.141281
2004-04-05 09:16:53 51°8.592 2°34.49 9.042132 3.661403 34.241334 25.141281
2004-04-05 09:16:58 51°8.588 2°34.483 9.044512 3.661087 34.238043 24.939024
2004-04-05 09:17:03 51°8.585 2°34.476 9.044559 3.660981 34.236946 24.905315
2004-04-05 09:17:09 51°8.581 2°34.468 9.045511 3.660981 34.236946 25.006443
2004-04-05 09:17:13 51°8.579 2°34.462 9.042227 3.661087 34.238835 24.905315
2004-04-05 09:17:18 51°8.575 2°34.455 9.043369 3.660981 34.237738 25.107571
2004-04-05 09:17:23 51°8.572 2°34.449 9.043369 3.660981 34.237738 25.107571
2004-04-05 09:17:29 51°8.569 2°34.441 9.042132 3.660771 34.234752 24.972734
2004-04-05 09:17:33 51°8.567 2°34.436 9.040085 3.660876 34.237433 24.871606
2004-04-05 09:17:38 51°8.564 2°34.43 9.039324 3.660665 34.23603 25.2087
2004-04-05 09:17:43 51°8.561 2°34.424 9.038324 3.660771 34.237919 25.478375
2004-04-05 09:17:49 51°8.558 2°34.416 9.041275 3.660349 34.234323 25.377247
2004-04-05 09:17:53 51°8.555 2°34.412 9.041275 3.660349 34.234323 25.377247
2004-04-05 09:17:58 51°8.553 2°34.406 9.037896 3.660454 34.234628 25.309828
2004-04-05 09:18:03 51°8.55 2°34.401 9.039466 3.660454 34.23542 25.444665
2004-04-05 09:18:09 51°8.547 2°34.393 9.037372 3.660244 34.23481 25.107571
2004-04-05 09:18:13 51°8.545 2°34.388 9.037324 3.660138 34.234504 25.377247
2004-04-05 09:18:17 51°8.543 2°34.383 9.038943 3.659928 34.230726 25.377247
2004-04-05 09:18:23 51°8.54 2°34.376 9.038943 3.659928 34.230726 25.377247
2004-04-05 09:18:29 51°8.537 2°34.368 9.037277 3.660244 34.236393 25.276118
2004-04-05 09:18:33 51°8.535 2°34.363 9.038229 3.660138 34.235296 25.2087
2004-04-05 09:18:38 51°8.533 2°34.356 9.039086 3.659717 34.230116 25.276118
2004-04-05 09:18:43 51°8.53 2°34.35 9.036706 3.659928 34.233102 25.410956
2004-04-05 09:18:49 51°8.528 2°34.342 9.035753 3.659928 34.233102 25.006443
2004-04-05 09:18:53 51°8.526 2°34.337 9.035753 3.659928 34.233102 25.006443
2004-04-05 09:18:59 51°8.523 2°34.329 9.036325 3.659506 34.229505 25.309828
2004-04-05 09:19:03 51°8.521 2°34.323 9.034325 3.659928 34.233102 25.512084
2004-04-05 09:19:09 51°8.518 2°34.314 9.035849 3.659611 34.230602 25.107571
2004-04-05 09:19:13 51°8.516 2°34.308 9.036039 3.659822 34.232797 24.939024
2004-04-05 09:19:18 51°8.514 2°34.301 9.034183 3.659822 34.233588 24.939024
2004-04-05 09:19:23 51°8.512 2°34.294 9.034183 3.659822 34.233588 24.939024
2004-04-05 09:19:27 51°8.51 2°34.289 9.036277 3.65919 34.228589 24.804187
2004-04-05 09:19:33 51°8.507 2°34.28 9.034135 3.659401 34.229992 25.040153
2004-04-05 09:19:39 51°8.504 2°34.272 9.037896 3.659506 34.231881 25.040153
2004-04-05 09:19:43 51°8.502 2°34.266 9.035753 3.65919 34.229381 25.17499
2004-04-05 09:19:48 51°8.499 2°34.26 9.03404 3.659401 34.230783 25.2087
2004-04-05 09:19:53 51°8.496 2°34.253 9.03404 3.659401 34.230783 25.2087
2004-04-05 09:19:58 51°8.493 2°34.246 9.03623 3.65919 34.228589 25.141281
2004-04-05 09:20:03 51°8.49 2°34.24 9.033564 3.659085 34.225908 25.444665
2004-04-05 09:20:09 51°8.487 2°34.233 9.036753 3.659295 34.228894 25.242409
2004-04-05 09:20:13 51°8.484 2°34.228 9.035087 3.659295 34.228103 25.040153
2004-04-05 09:20:17 51°8.482 2°34.223 9.035563 3.659295 34.227311 25.714341
2004-04-05 09:20:23 51°8.478 2°34.217 9.035563 3.659295 34.227311 25.714341
2004-04-05 09:20:29 51°8.475 2°34.21 9.032469 3.65919 34.227005 25.646922
2004-04-05 09:20:33 51°8.472 2°34.206 9.032183 3.659506 34.231089 26.152563
2004-04-05 09:20:38 51°8.47 2°34.2 9.037515 3.659295 34.228894 25.680631
2004-04-05 09:20:43 51°8.467 2°34.194 9.033992 3.659085 34.225908 26.017725
2004-04-05 09:20:47 51°8.465 2°34.19 9.032992 3.659401 34.2292 25.815469
2004-04-05 09:20:53 51°8.462 2°34.183 9.032992 3.659401 34.2292 25.815469
2004-04-05 09:20:58 51°8.459 2°34.177 9.031374 3.658979 34.226395 25.410956
2004-04-05 09:21:03 51°8.456 2°34.172 9.030565 3.658979 34.226395 25.478375
2004-04-05 09:21:09 51°8.453 2°34.165 9.031517 3.659085 34.229076 25.2087
2004-04-05 09:21:13 51°8.451 2°34.161 9.033183 3.658979 34.226395 25.006443
2004-04-05 09:21:19 51°8.448 2°34.155 9.032564 3.658874 34.226881 24.770477
2004-04-05 09:21:23 51°8.445 2°34.15 9.032564 3.658874 34.226881 24.770477
2004-04-05 09:21:29 51°8.442 2°34.144 9.032326 3.658558 34.224381 24.096289
2004-04-05 09:21:33 51°8.44 2°34.14 9.032564 3.658874 34.227673 24.871606
2004-04-05 09:21:37 51°8.438 2°34.135 9.031564 3.658874 34.226881 24.129999
2004-04-05 09:21:43 51°8.434 2°34.128 9.030422 3.658874 34.228465 24.129999
2004-04-05 09:21:49 51°8.431 2°34.121 9.029422 3.658979 34.229562 24.365965